Observation data for Segovia 7SSW on 06/13/2019      Previous  Date       Current Mesonet Observations  Soil Data  Daily Summary Page  Observations in Plain Language
KSE2 130500Z 13001KT 22/18 A3014 RMK A01 T02150183  RH  082%=      5-min Rain = 0
KSE2 130501Z 13000KT 21/18 A3014 RMK A01 T02120180  RH  082%=      5-min Rain = 0
KSE2 130502Z 00000KT 21/18 A3014 RMK A01 T02110180  RH  083%=      5-min Rain = 0
KSE2 130503Z 00000KT 21/18 A3014 RMK A01 T02090181  RH  084%=      5-min Rain = 0
KSE2 130504Z 13000KT 21/18 A3014 RMK A01 T02090180  RH  084%=      5-min Rain = 0
KSE2 130505Z 13000KT 21/18 A3014 RMK A01 T02080179  RH  084%=      5-min Rain = 0
KSE2 130506Z 13001KT 21/18 A3014 RMK A01 T02080180  RH  084%=      5-min Rain = 0
KSE2 130507Z 13001KT 21/18 A3014 RMK A01 T02080181  RH  085%=      5-min Rain = 0
KSE2 130508Z 13001KT 21/18 A3014 RMK A01 T02070180  RH  084%=      5-min Rain = 0
KSE2 130509Z 13002KT 21/18 A3014 RMK A01 T02070179  RH  084%=      5-min Rain = 0
KSE2 130510Z 13002KT 21/18 A3014 RMK A01 T02070179  RH  084%=      5-min Rain = 0
KSE2 130511Z 12002KT 21/18 A3014 RMK A01 T02070179  RH  084%=      5-min Rain = 0
KSE2 130512Z 12001KT 21/18 A3014 RMK A01 T02070179  RH  084%=      5-min Rain = 0
KSE2 130513Z 11001KT 21/18 A3014 RMK A01 T02070180  RH  085%=      5-min Rain = 0
KSE2 130514Z 11001KT 21/18 A3014 RMK A01 T02070179  RH  084%=      5-min Rain = 0
KSE2 130515Z 11001KT 21/18 A3014 RMK A01 T02070178  RH  083%=      5-min Rain = 0
KSE2 130516Z 09001KT 21/18 A3014 RMK A01 T02070178  RH  083%=      5-min Rain = 0
KSE2 130517Z 08001KT 21/18 A3014 RMK A01 T02080180  RH  084%=      5-min Rain = 0
KSE2 130518Z 07001KT 21/18 A3014 RMK A01 T02080179  RH  084%=      5-min Rain = 0
KSE2 130519Z 06002KT 21/18 A3014 RMK A01 T02080178  RH  083%=      5-min Rain = 0
KSE2 130520Z 06002KT 21/18 A3014 RMK A01 T02080178  RH  083%=      5-min Rain = 0
KSE2 130521Z 07002KT 21/18 A3014 RMK A01 T02090179  RH  083%=      5-min Rain = 0
KSE2 130522Z 07001KT 21/18 A3014 RMK A01 T02090178  RH  083%=      5-min Rain = 0
KSE2 130523Z 07002KT 21/18 A3014 RMK A01 T02090177  RH  082%=      5-min Rain = 0
KSE2 130524Z 07002KT 21/18 A3014 RMK A01 T02090177  RH  082%=      5-min Rain = 0
KSE2 130525Z 07002KT 21/18 A3014 RMK A01 T02100177  RH  081%=      5-min Rain = 0
KSE2 130526Z 07002KT 21/18 A3014 RMK A01 T02100177  RH  081%=      5-min Rain = 0
KSE2 130527Z 06001KT 21/18 A3014 RMK A01 T02100177  RH  081%=      5-min Rain = 0
KSE2 130528Z 02001KT 21/18 A3014 RMK A01 T02100177  RH  081%=      5-min Rain = 0
KSE2 130529Z 34001KT 21/18 A3014 RMK A01 T02090178  RH  082%=      5-min Rain = 0
KSE2 130530Z 33003KT 21/18 A3014 RMK A01 T02080180  RH  084%=      5-min Rain = 0
KSE2 130531Z 33003KT 21/18 A3014 RMK A01 T02060181  RH  085%=      5-min Rain = 0
KSE2 130532Z 34003KT 20/18 A3014 RMK A01 T02040181  RH  086%=      5-min Rain = 0
KSE2 130533Z 35003KT 20/18 A3014 RMK A01 T02030181  RH  087%=      5-min Rain = 0
KSE2 130534Z 36003KT 20/18 A3014 RMK A01 T02020181  RH  088%=      5-min Rain = 0
KSE2 130535Z 01002KT 20/18 A3014 RMK A01 T02010181  RH  088%=      5-min Rain = 0
KSE2 130536Z 01002KT 20/18 A3014 RMK A01 T02010180  RH  088%=      5-min Rain = 0
KSE2 130537Z 04002KT 20/18 A3014 RMK A01 T02000180  RH  088%=      5-min Rain = 0
KSE2 130538Z 06001KT 20/18 A3014 RMK A01 T02000181  RH  089%=      5-min Rain = 0
KSE2 130539Z 06001KT 20/18 A3014 RMK A01 T02000180  RH  088%=      5-min Rain = 0
KSE2 130540Z 06002KT 20/18 A3014 RMK A01 T02000180  RH  088%=      5-min Rain = 0
KSE2 130541Z 05002KT 20/18 A3014 RMK A01 T02000180  RH  088%=      5-min Rain = 0
KSE2 130542Z 06002KT 20/18 A3014 RMK A01 T02000179  RH  088%=      5-min Rain = 0
KSE2 130543Z 06001KT 20/18 A3014 RMK A01 T02000179  RH  088%=      5-min Rain = 0
KSE2 130544Z 04001KT 20/18 A3014 RMK A01 T02000179  RH  087%=      5-min Rain = 0
KSE2 130545Z 04001KT 20/18 A3014 RMK A01 T02000180  RH  088%=      5-min Rain = 0
KSE2 130546Z 02001KT 20/18 A3014 RMK A01 T02000180  RH  088%=      5-min Rain = 0
KSE2 130547Z 01002KT 20/18 A3014 RMK A01 T01990180  RH  088%=      5-min Rain = 0
KSE2 130548Z 01003KT 20/18 A3014 RMK A01 T01990180  RH  089%=      5-min Rain = 0
KSE2 130549Z 01003KT 20/18 A3014 RMK A01 T01990180  RH  089%=      5-min Rain = 0
KSE2 130550Z 01003KT 20/18 A3014 RMK A01 T01990180  RH  089%=      5-min Rain = 0
KSE2 130551Z 36003KT 20/18 A3014 RMK A01 T01990180  RH  089%=      5-min Rain = 0
KSE2 130552Z 35004KT 20/18 A3014 RMK A01 T01980180  RH  089%=      5-min Rain = 0
KSE2 130553Z 34004KT 20/18 A3014 RMK A01 T01980180  RH  089%=      5-min Rain = 0
KSE2 130554Z 35005KT 20/18 A3014 RMK A01 T01980180  RH  090%=      5-min Rain = 0
KSE2 130555Z 35005KT 20/18 A3014 RMK A01 T01970180  RH  090%=      5-min Rain = 0
KSE2 130556Z 35006KT 20/18 A3014 RMK A01 T01970180  RH  090%=      5-min Rain = 0
KSE2 130557Z 36005KT 20/18 A3014 RMK A01 T01970180  RH  090%=      5-min Rain = 0
KSE2 130558Z 36004KT 20/18 A3014 RMK A01 T01970180  RH  089%=      5-min Rain = 0
KSE2 130559Z 36004KT 20/18 A3014 RMK A01 T01980180  RH  089%=      5-min Rain = 0
KSE2 130600Z 35004KT 20/18 A3014 RMK A01 T01990180  RH  089%=      5-min Rain = 0
KSE2 130601Z 35003KT 20/18 A3014 RMK A01 T01990180  RH  089%=      5-min Rain = 0
KSE2 130602Z 36003KT 20/18 A3014 RMK A01 T01990180  RH  089%=      5-min Rain = 0
KSE2 130603Z 36003KT 20/18 A3014 RMK A01 T01990180  RH  089%=      5-min Rain = 0
KSE2 130604Z 35003KT 20/18 A3014 RMK A01 T01990180  RH  089%=      5-min Rain = 0
KSE2 130605Z 34003KT 20/18 A3014 RMK A01 T01980180  RH  089%=      5-min Rain = 0
KSE2 130606Z 34003KT 20/18 A3014 RMK A01 T01980180  RH  089%=      5-min Rain = 0
KSE2 130607Z 34004KT 20/18 A3014 RMK A01 T01970180  RH  090%=      5-min Rain = 0
KSE2 130608Z 35004KT 20/18 A3014 RMK A01 T01970180  RH  090%=      5-min Rain = 0
KSE2 130609Z 35004KT 20/18 A3014 RMK A01 T01960179  RH  090%=      5-min Rain = 0
KSE2 130610Z 35004KT 20/18 A3014 RMK A01 T01960180  RH  090%=      5-min Rain = 0
KSE2 130611Z 35004KT 20/18 A3014 RMK A01 T01960179  RH  090%=      5-min Rain = 0
KSE2 130612Z 35005KT 20/18 A3014 RMK A01 T01950180  RH  090%=      5-min Rain = 0
KSE2 130613Z 35005KT 20/18 A3014 RMK A01 T01950179  RH  091%=      5-min Rain = 0
KSE2 130614Z 36005KT 19/18 A3015 RMK A01 T01940179  RH  091%=      5-min Rain = 0
KSE2 130615Z 36006KT 19/18 A3015 RMK A01 T01940179  RH  091%=      5-min Rain = 0
KSE2 130616Z 00006KT 19/18 A3015 RMK A01 T01940179  RH  091%=      5-min Rain = 0
KSE2 130617Z 01006KT 19/18 A3015 RMK A01 T01930179  RH  091%=      5-min Rain = 0
KSE2 130618Z 01006KT 19/18 A3015 RMK A01 T01940179  RH  091%=      5-min Rain = 0
KSE2 130619Z 02006KT 20/18 A3015 RMK A01 T01950179  RH  090%=      5-min Rain = 0
KSE2 130620Z 02006KT 20/18 A3015 RMK A01 T01970178  RH  089%=      5-min Rain = 0
KSE2 130621Z 02004KT 20/18 A3015 RMK A01 T01990179  RH  088%=      5-min Rain = 0
KSE2 130622Z 02004KT 20/18 A3015 RMK A01 T02000178  RH  087%=      5-min Rain = 0
KSE2 130623Z 02004KT 20/18 A3015 RMK A01 T02010178  RH  087%=      5-min Rain = 0
KSE2 130624Z 02005KT 20/18 A3015 RMK A01 T02020177  RH  086%=      5-min Rain = 0
KSE2 130625Z 03006KT 20/18 A3015 RMK A01 T02030178  RH  085%=      5-min Rain = 0
KSE2 130626Z 03006KT 20/18 A3015 RMK A01 T02040177  RH  085%=      5-min Rain = 0
KSE2 130627Z 03006KT 21/18 A3015 RMK A01 T02050176  RH  084%=      5-min Rain = 0
KSE2 130628Z 04006KT 21/18 A3015 RMK A01 T02060176  RH  083%=      5-min Rain = 0
KSE2 130629Z 03005KT 21/18 A3015 RMK A01 T02070176  RH  082%=      5-min Rain = 0
KSE2 130630Z 02005KT 21/18 A3015 RMK A01 T02070177  RH  083%=      5-min Rain = 0
KSE2 130631Z 03006KT 21/18 A3015 RMK A01 T02080177  RH  083%=      5-min Rain = 0
KSE2 130632Z 04005KT 21/18 A3015 RMK A01 T02070176  RH  082%=      5-min Rain = 0
KSE2 130633Z 03006KT 21/18 A3015 RMK A01 T02070176  RH  082%=      5-min Rain = 0
KSE2 130634Z 03006KT 21/18 A3015 RMK A01 T02070175  RH  082%=      5-min Rain = 0
KSE2 130635Z 04004KT 21/18 A3015 RMK A01 T02070175  RH  082%=      5-min Rain = 0
KSE2 130636Z 04005KT 21/18 A3015 RMK A01 T02070175  RH  082%=      5-min Rain = 0
KSE2 130637Z 04005KT 21/18 A3015 RMK A01 T02070175  RH  082%=      5-min Rain = 0
KSE2 130638Z 04005KT 21/17 A3015 RMK A01 T02060174  RH  082%=      5-min Rain = 0
KSE2 130639Z 04004KT 21/17 A3015 RMK A01 T02060174  RH  082%=      5-min Rain = 0
KSE2 130640Z 04004KT 21/17 A3015 RMK A01 T02060174  RH  082%=      5-min Rain = 0
KSE2 130641Z 05005KT 21/17 A3015 RMK A01 T02060174  RH  082%=      5-min Rain = 0
KSE2 130642Z 05004KT 21/17 A3015 RMK A01 T02060174  RH  082%=      5-min Rain = 0
KSE2 130643Z 05004KT 21/17 A3015 RMK A01 T02050174  RH  082%=      5-min Rain = 0
KSE2 130644Z 05004KT 21/17 A3015 RMK A01 T02050174  RH  082%=      5-min Rain = 0
KSE2 130645Z 04004KT 21/17 A3015 RMK A01 T02050173  RH  082%=      5-min Rain = 0
KSE2 130646Z 05004KT 21/17 A3015 RMK A01 T02050174  RH  082%=      5-min Rain = 0
KSE2 130647Z 05005KT 20/17 A3015 RMK A01 T02040173  RH  082%=      5-min Rain = 0
KSE2 130648Z 06005KT 20/17 A3015 RMK A01 T02040173  RH  082%=      5-min Rain = 0
KSE2 130649Z 05004KT 21/17 A3015 RMK A01 T02050173  RH  082%=      5-min Rain = 0
KSE2 130650Z 05004KT 20/17 A3015 RMK A01 T02040172  RH  082%=      5-min Rain = 0
KSE2 130651Z 05004KT 20/17 A3015 RMK A01 T02040173  RH  082%=      5-min Rain = 0
KSE2 130652Z 05004KT 20/17 A3015 RMK A01 T02040172  RH  082%=      5-min Rain = 0
KSE2 130653Z 05004KT 20/17 A3015 RMK A01 T02030172  RH  082%=      5-min Rain = 0
KSE2 130654Z 04005KT 20/17 A3015 RMK A01 T02030172  RH  082%=      5-min Rain = 0
KSE2 130655Z 04005KT 20/17 A3015 RMK A01 T02030172  RH  082%=      5-min Rain = 0
KSE2 130656Z 04004KT 20/17 A3015 RMK A01 T02030172  RH  082%=      5-min Rain = 0
KSE2 130657Z 04004KT 20/17 A3014 RMK A01 T02030172  RH  082%=      5-min Rain = 0
KSE2 130658Z 05005KT 20/17 A3014 RMK A01 T02020171  RH  082%=      5-min Rain = 0
KSE2 130659Z 05005KT 20/17 A3014 RMK A01 T02030172  RH  082%=      5-min Rain = 0
KSE2 130700Z 05004KT 20/17 A3015 RMK A01 T02030172  RH  082%=      5-min Rain = 0
KSE2 130701Z 05005KT 20/17 A3015 RMK A01 T02020171  RH  082%=      5-min Rain = 0
KSE2 130702Z 05004KT 20/17 A3014 RMK A01 T02020171  RH  082%=      5-min Rain = 0
KSE2 130703Z 05004KT 20/17 A3015 RMK A01 T02020171  RH  082%=      5-min Rain = 0
KSE2 130704Z 05005KT 20/17 A3015 RMK A01 T02020171  RH  082%=      5-min Rain = 0
KSE2 130705Z 05004KT 20/17 A3015 RMK A01 T02020171  RH  082%=      5-min Rain = 0
KSE2 130706Z 05005KT 20/17 A3014 RMK A01 T02020171  RH  082%=      5-min Rain = 0
KSE2 130707Z 05005KT 20/17 A3015 RMK A01 T02020171  RH  082%=      5-min Rain = 0
KSE2 130708Z 05005KT 20/17 A3015 RMK A01 T02020171  RH  083%=      5-min Rain = 0
KSE2 130709Z 05004KT 20/17 A3015 RMK A01 T02010171  RH  083%=      5-min Rain = 0
KSE2 130710Z 05004KT 20/17 A3015 RMK A01 T02010171  RH  083%=      5-min Rain = 0
KSE2 130711Z 05004KT 20/17 A3015 RMK A01 T02010171  RH  082%=      5-min Rain = 0
KSE2 130712Z 05004KT 20/17 A3015 RMK A01 T02010170  RH  082%=      5-min Rain = 0
KSE2 130713Z 05005KT 20/17 A3015 RMK A01 T02010170  RH  082%=      5-min Rain = 0
KSE2 130714Z 05004KT 20/17 A3015 RMK A01 T02010170  RH  082%=      5-min Rain = 0
KSE2 130715Z 05004KT 20/17 A3015 RMK A01 T02010170  RH  082%=      5-min Rain = 0
KSE2 130716Z 05004KT 20/17 A3015 RMK A01 T02010170  RH  082%=      5-min Rain = 0
KSE2 130717Z 05004KT 20/17 A3015 RMK A01 T02010170  RH  083%=      5-min Rain = 0
KSE2 130718Z 05005KT 20/17 A3015 RMK A01 T02010170  RH  082%=      5-min Rain = 0
KSE2 130719Z 05004KT 20/17 A3015 RMK A01 T02010170  RH  082%=      5-min Rain = 0
KSE2 130720Z 05004KT 20/17 A3015 RMK A01 T02010170  RH  082%=      5-min Rain = 0
KSE2 130721Z 05004KT 20/17 A3015 RMK A01 T02000169  RH  082%=      5-min Rain = 0
KSE2 130722Z 05005KT 20/17 A3015 RMK A01 T02000169  RH  082%=      5-min Rain = 0
KSE2 130723Z 05004KT 20/17 A3015 RMK A01 T02000169  RH  082%=      5-min Rain = 0
KSE2 130724Z 05004KT 20/17 A3015 RMK A01 T02000170  RH  082%=      5-min Rain = 0
KSE2 130725Z 05004KT 20/17 A3015 RMK A01 T02000170  RH  083%=      5-min Rain = 0
KSE2 130726Z 04004KT 20/17 A3015 RMK A01 T02000170  RH  083%=      5-min Rain = 0
KSE2 130727Z 04004KT 20/17 A3015 RMK A01 T02000170  RH  083%=      5-min Rain = 0
KSE2 130728Z 04004KT 20/17 A3015 RMK A01 T01990169  RH  083%=      5-min Rain = 0
KSE2 130729Z 04004KT 20/17 A3015 RMK A01 T01990169  RH  083%=      5-min Rain = 0
KSE2 130730Z 04004KT 20/17 A3015 RMK A01 T01990169  RH  083%=      5-min Rain = 0
KSE2 130731Z 04004KT 20/17 A3015 RMK A01 T01990169  RH  083%=      5-min Rain = 0
KSE2 130732Z 04004KT 20/17 A3015 RMK A01 T01990169  RH  083%=      5-min Rain = 0
KSE2 130733Z 04003KT 20/17 A3015 RMK A01 T01990168  RH  083%=      5-min Rain = 0
KSE2 130734Z 04003KT 20/17 A3015 RMK A01 T01990169  RH  083%=      5-min Rain = 0
KSE2 130735Z 04004KT 20/17 A3015 RMK A01 T01990169  RH  083%=      5-min Rain = 0
KSE2 130736Z 04003KT 20/17 A3015 RMK A01 T01990169  RH  083%=      5-min Rain = 0
KSE2 130737Z 04003KT 20/17 A3015 RMK A01 T01980169  RH  083%=      5-min Rain = 0
KSE2 130738Z 04003KT 20/17 A3015 RMK A01 T01980169  RH  083%=      5-min Rain = 0
KSE2 130739Z 04003KT 20/17 A3015 RMK A01 T01990169  RH  083%=      5-min Rain = 0
KSE2 130740Z 03003KT 20/17 A3015 RMK A01 T01980169  RH  083%=      5-min Rain = 0
KSE2 130741Z 04003KT 20/17 A3015 RMK A01 T01980169  RH  083%=      5-min Rain = 0
KSE2 130742Z 04003KT 20/17 A3015 RMK A01 T01980169  RH  083%=      5-min Rain = 0
KSE2 130743Z 04003KT 20/17 A3015 RMK A01 T01980169  RH  083%=      5-min Rain = 0
KSE2 130744Z 04003KT 20/17 A3015 RMK A01 T01980169  RH  084%=      5-min Rain = 0
KSE2 130745Z 04003KT 20/17 A3015 RMK A01 T01970169  RH  083%=      5-min Rain = 0
KSE2 130746Z 04003KT 20/17 A3015 RMK A01 T01970168  RH  084%=      5-min Rain = 0
KSE2 130747Z 04003KT 20/17 A3015 RMK A01 T01970168  RH  083%=      5-min Rain = 0
KSE2 130748Z 04003KT 20/17 A3015 RMK A01 T01970167  RH  083%=      5-min Rain = 0
KSE2 130749Z 04003KT 20/17 A3015 RMK A01 T01970167  RH  083%=      5-min Rain = 0
KSE2 130750Z 04003KT 20/17 A3015 RMK A01 T01970167  RH  083%=      5-min Rain = 0
KSE2 130751Z 05004KT 20/17 A3015 RMK A01 T01970168  RH  083%=      5-min Rain = 0
KSE2 130752Z 05004KT 20/17 A3015 RMK A01 T01970167  RH  083%=      5-min Rain = 0
KSE2 130753Z 05003KT 20/17 A3015 RMK A01 T01970167  RH  083%=      5-min Rain = 0
KSE2 130754Z 05003KT 20/17 A3015 RMK A01 T01970167  RH  083%=      5-min Rain = 0
KSE2 130755Z 05003KT 20/17 A3015 RMK A01 T01970166  RH  083%=      5-min Rain = 0
KSE2 130756Z 05004KT 20/17 A3015 RMK A01 T01970167  RH  083%=      5-min Rain = 0
KSE2 130757Z 04004KT 20/17 A3015 RMK A01 T01970167  RH  083%=      5-min Rain = 0
KSE2 130758Z 04003KT 20/17 A3015 RMK A01 T01970167  RH  083%=      5-min Rain = 0
KSE2 130759Z 04003KT 20/17 A3015 RMK A01 T01970167  RH  083%=      5-min Rain = 0
KSE2 130800Z 04003KT 20/17 A3015 RMK A01 T01970167  RH  083%=      5-min Rain = 0
KSE2 130801Z 05004KT 20/17 A3015 RMK A01 T01970167  RH  083%=      5-min Rain = 0
KSE2 130802Z 04004KT 20/17 A3015 RMK A01 T01970167  RH  083%=      5-min Rain = 0
KSE2 130803Z 04004KT 20/17 A3015 RMK A01 T01970166  RH  083%=      5-min Rain = 0
KSE2 130804Z 05004KT 20/17 A3015 RMK A01 T01970166  RH  083%=      5-min Rain = 0
KSE2 130805Z 04004KT 20/17 A3015 RMK A01 T01970166  RH  082%=      5-min Rain = 0
KSE2 130806Z 05004KT 20/17 A3015 RMK A01 T01970166  RH  082%=      5-min Rain = 0
KSE2 130807Z 05004KT 20/17 A3015 RMK A01 T01970165  RH  082%=      5-min Rain = 0
KSE2 130808Z 04004KT 20/17 A3015 RMK A01 T01970166  RH  082%=      5-min Rain = 0
KSE2 130809Z 04003KT 20/17 A3015 RMK A01 T01970166  RH  082%=      5-min Rain = 0
KSE2 130810Z 04003KT 20/17 A3015 RMK A01 T01970166  RH  082%=      5-min Rain = 0
KSE2 130811Z 04003KT 20/17 A3015 RMK A01 T01970166  RH  082%=      5-min Rain = 0
KSE2 130812Z 04003KT 20/17 A3015 RMK A01 T01970166  RH  082%=      5-min Rain = 0
KSE2 130813Z 04003KT 20/17 A3015 RMK A01 T01970166  RH  082%=      5-min Rain = 0
KSE2 130814Z 04003KT 20/17 A3015 RMK A01 T01970166  RH  082%=      5-min Rain = 0
KSE2 130815Z 04004KT 20/17 A3015 RMK A01 T01970166  RH  082%=      5-min Rain = 0
KSE2 130816Z 04004KT 20/17 A3015 RMK A01 T01970165  RH  082%=      5-min Rain = 0
KSE2 130817Z 04003KT 20/17 A3015 RMK A01 T01970165  RH  082%=      5-min Rain = 0
KSE2 130818Z 04003KT 20/17 A3015 RMK A01 T01970165  RH  082%=      5-min Rain = 0
KSE2 130819Z 04003KT 20/17 A3015 RMK A01 T01970165  RH  082%=      5-min Rain = 0
KSE2 130820Z 04003KT 20/17 A3015 RMK A01 T01970165  RH  082%=      5-min Rain = 0
KSE2 130821Z 04003KT 20/17 A3015 RMK A01 T01970165  RH  082%=      5-min Rain = 0
KSE2 130822Z 05003KT 20/17 A3015 RMK A01 T01970165  RH  082%=      5-min Rain = 0
KSE2 130823Z 04003KT 20/17 A3015 RMK A01 T01970165  RH  082%=      5-min Rain = 0
KSE2 130824Z 04002KT 20/17 A3015 RMK A01 T01970165  RH  082%=      5-min Rain = 0
KSE2 130825Z 04003KT 20/17 A3015 RMK A01 T01960165  RH  082%=      5-min Rain = 0
KSE2 130826Z 04003KT 20/17 A3015 RMK A01 T01960166  RH  083%=      5-min Rain = 0
KSE2 130827Z 03003KT 20/17 A3015 RMK A01 T01960165  RH  083%=      5-min Rain = 0
KSE2 130828Z 03003KT 20/17 A3015 RMK A01 T01950165  RH  083%=      5-min Rain = 0
KSE2 130829Z 03003KT 20/17 A3015 RMK A01 T01950165  RH  083%=      5-min Rain = 0
KSE2 130830Z 04003KT 20/17 A3015 RMK A01 T01950165  RH  083%=      5-min Rain = 0
KSE2 130831Z 03003KT 19/17 A3015 RMK A01 T01940165  RH  083%=      5-min Rain = 0
KSE2 130832Z 03003KT 19/16 A3015 RMK A01 T01940164  RH  083%=      5-min Rain = 0
KSE2 130833Z 03003KT 19/17 A3015 RMK A01 T01940165  RH  083%=      5-min Rain = 0
KSE2 130834Z 03003KT 19/17 A3015 RMK A01 T01940165  RH  083%=      5-min Rain = 0
KSE2 130835Z 03003KT 19/17 A3015 RMK A01 T01930165  RH  083%=      5-min Rain = 0
KSE2 130836Z 04003KT 19/17 A3015 RMK A01 T01930165  RH  083%=      5-min Rain = 0
KSE2 130837Z 04003KT 19/16 A3015 RMK A01 T01940164  RH  083%=      5-min Rain = 0
KSE2 130838Z 04003KT 19/16 A3015 RMK A01 T01930164  RH  083%=      5-min Rain = 0
KSE2 130839Z 04003KT 19/16 A3015 RMK A01 T01930164  RH  083%=      5-min Rain = 0
KSE2 130840Z 03003KT 19/16 A3015 RMK A01 T01930164  RH  083%=      5-min Rain = 0
KSE2 130841Z 04004KT 19/16 A3015 RMK A01 T01940164  RH  083%=      5-min Rain = 0
KSE2 130842Z 04003KT 19/17 A3015 RMK A01 T01930165  RH  083%=      5-min Rain = 0
KSE2 130843Z 04004KT 19/17 A3015 RMK A01 T01930165  RH  084%=      5-min Rain = 0
KSE2 130844Z 04004KT 19/17 A3015 RMK A01 T01940165  RH  083%=      5-min Rain = 0
KSE2 130845Z 04004KT 19/16 A3015 RMK A01 T01930164  RH  083%=      5-min Rain = 0
KSE2 130846Z 04004KT 19/17 A3015 RMK A01 T01930165  RH  083%=      5-min Rain = 0
KSE2 130847Z 04004KT 19/17 A3015 RMK A01 T01930165  RH  083%=      5-min Rain = 0
KSE2 130848Z 04004KT 19/17 A3015 RMK A01 T01940165  RH  083%=      5-min Rain = 0
KSE2 130849Z 04004KT 19/16 A3015 RMK A01 T01940164  RH  083%=      5-min Rain = 0
KSE2 130850Z 04004KT 19/17 A3015 RMK A01 T01940165  RH  083%=      5-min Rain = 0
KSE2 130851Z 04003KT 19/17 A3015 RMK A01 T01930165  RH  083%=      5-min Rain = 0
KSE2 130852Z 04004KT 19/16 A3015 RMK A01 T01930164  RH  083%=      5-min Rain = 0
KSE2 130853Z 05004KT 19/16 A3015 RMK A01 T01930164  RH  083%=      5-min Rain = 0
KSE2 130854Z 04005KT 19/16 A3015 RMK A01 T01930164  RH  083%=      5-min Rain = 0
KSE2 130855Z 04004KT 19/16 A3015 RMK A01 T01930164  RH  084%=      5-min Rain = 0
KSE2 130856Z 04004KT 19/16 A3015 RMK A01 T01930164  RH  083%=      5-min Rain = 0
KSE2 130857Z 04004KT 19/16 A3015 RMK A01 T01930164  RH  083%=      5-min Rain = 0
KSE2 130858Z 04004KT 19/16 A3015 RMK A01 T01930164  RH  083%=      5-min Rain = 0
KSE2 130859Z 05004KT 19/16 A3015 RMK A01 T01930164  RH  083%=      5-min Rain = 0
KSE2 130900Z 05004KT 19/16 A3015 RMK A01 T01930164  RH  083%=      5-min Rain = 0
KSE2 130901Z 05004KT 19/16 A3015 RMK A01 T01930164  RH  083%=      5-min Rain = 0
KSE2 130902Z 04004KT 19/16 A3015 RMK A01 T01930164  RH  083%=      5-min Rain = 0
KSE2 130903Z 05004KT 19/16 A3015 RMK A01 T01930164  RH  083%=      5-min Rain = 0
KSE2 130904Z 05004KT 19/16 A3015 RMK A01 T01930164  RH  083%=      5-min Rain = 0
KSE2 130905Z 04004KT 19/16 A3015 RMK A01 T01930164  RH  084%=      5-min Rain = 0
KSE2 130906Z 04004KT 19/16 A3015 RMK A01 T01930164  RH  084%=      5-min Rain = 0
KSE2 130907Z 04004KT 19/16 A3015 RMK A01 T01930164  RH  084%=      5-min Rain = 0
KSE2 130908Z 04004KT 19/17 A3015 RMK A01 T01930165  RH  084%=      5-min Rain = 0
KSE2 130909Z 04003KT 19/16 A3015 RMK A01 T01930164  RH  084%=      5-min Rain = 0
KSE2 130910Z 05004KT 19/16 A3015 RMK A01 T01920164  RH  084%=      5-min Rain = 0
KSE2 130911Z 05004KT 19/16 A3015 RMK A01 T01920164  RH  084%=      5-min Rain = 0
KSE2 130912Z 05004KT 19/16 A3015 RMK A01 T01920164  RH  084%=      5-min Rain = 0
KSE2 130913Z 05004KT 19/16 A3015 RMK A01 T01920164  RH  084%=      5-min Rain = 0
KSE2 130914Z 05004KT 19/16 A3015 RMK A01 T01920164  RH  084%=      5-min Rain = 0
KSE2 130915Z 05004KT 19/16 A3015 RMK A01 T01920164  RH  084%=      5-min Rain = 0
KSE2 130916Z 04004KT 19/16 A3015 RMK A01 T01920164  RH  084%=      5-min Rain = 0
KSE2 130917Z 05004KT 19/16 A3015 RMK A01 T01920164  RH  084%=      5-min Rain = 0
KSE2 130918Z 05004KT 19/16 A3015 RMK A01 T01920164  RH  084%=      5-min Rain = 0
KSE2 130919Z 05004KT 19/16 A3015 RMK A01 T01920164  RH  084%=      5-min Rain = 0
KSE2 130920Z 05004KT 19/16 A3015 RMK A01 T01920164  RH  084%=      5-min Rain = 0
KSE2 130921Z 05004KT 19/16 A3015 RMK A01 T01910164  RH  084%=      5-min Rain = 0
KSE2 130922Z 05004KT 19/16 A3015 RMK A01 T01910164  RH  084%=      5-min Rain = 0
KSE2 130923Z 05004KT 19/16 A3015 RMK A01 T01910164  RH  084%=      5-min Rain = 0
KSE2 130924Z 05003KT 19/16 A3015 RMK A01 T01910164  RH  084%=      5-min Rain = 0
KSE2 130925Z 05003KT 19/16 A3015 RMK A01 T01910164  RH  084%=      5-min Rain = 0
KSE2 130926Z 06003KT 19/16 A3015 RMK A01 T01910164  RH  084%=      5-min Rain = 0
KSE2 130927Z 05003KT 19/16 A3015 RMK A01 T01910164  RH  084%=      5-min Rain = 0
KSE2 130928Z 05003KT 19/16 A3015 RMK A01 T01910164  RH  084%=      5-min Rain = 0
KSE2 130929Z 05003KT 19/16 A3015 RMK A01 T01910164  RH  085%=      5-min Rain = 0
KSE2 130930Z 05003KT 19/16 A3015 RMK A01 T01900164  RH  085%=      5-min Rain = 0
KSE2 130931Z 05003KT 19/16 A3015 RMK A01 T01900164  RH  085%=      5-min Rain = 0
KSE2 130932Z 05003KT 19/16 A3015 RMK A01 T01900164  RH  085%=      5-min Rain = 0
KSE2 130933Z 05004KT 19/16 A3015 RMK A01 T01900164  RH  085%=      5-min Rain = 0
KSE2 130934Z 05004KT 19/16 A3015 RMK A01 T01900164  RH  085%=      5-min Rain = 0
KSE2 130935Z 05004KT 19/16 A3015 RMK A01 T01900164  RH  085%=      5-min Rain = 0
KSE2 130936Z 06004KT 19/16 A3015 RMK A01 T01890164  RH  085%=      5-min Rain = 0
KSE2 130937Z 05004KT 19/16 A3015 RMK A01 T01890164  RH  085%=      5-min Rain = 0
KSE2 130938Z 06004KT 19/16 A3015 RMK A01 T01890164  RH  085%=      5-min Rain = 0
KSE2 130939Z 06004KT 19/16 A3015 RMK A01 T01890164  RH  085%=      5-min Rain = 0
KSE2 130940Z 06004KT 19/16 A3015 RMK A01 T01890164  RH  085%=      5-min Rain = 0
KSE2 130941Z 06004KT 19/16 A3015 RMK A01 T01890164  RH  085%=      5-min Rain = 0
KSE2 130942Z 06004KT 19/16 A3015 RMK A01 T01880164  RH  085%=      5-min Rain = 0
KSE2 130943Z 06004KT 19/16 A3015 RMK A01 T01880164  RH  086%=      5-min Rain = 0
KSE2 130944Z 07003KT 19/16 A3015 RMK A01 T01880164  RH  086%=      5-min Rain = 0
KSE2 130945Z 07004KT 19/16 A3015 RMK A01 T01880164  RH  086%=      5-min Rain = 0
KSE2 130946Z 07003KT 19/16 A3015 RMK A01 T01870164  RH  086%=      5-min Rain = 0
KSE2 130947Z 08003KT 19/16 A3015 RMK A01 T01880164  RH  086%=      5-min Rain = 0
KSE2 130948Z 08003KT 19/16 A3015 RMK A01 T01880164  RH  086%=      5-min Rain = 0
KSE2 130949Z 08004KT 19/16 A3015 RMK A01 T01880164  RH  086%=      5-min Rain = 0
KSE2 130950Z 09004KT 19/16 A3015 RMK A01 T01880164  RH  086%=      5-min Rain = 0
KSE2 130951Z 09004KT 19/16 A3015 RMK A01 T01880164  RH  086%=      5-min Rain = 0
KSE2 130952Z 09004KT 19/16 A3015 RMK A01 T01880164  RH  086%=      5-min Rain = 0
KSE2 130953Z 09004KT 19/16 A3015 RMK A01 T01880164  RH  086%=      5-min Rain = 0
KSE2 130954Z 10004KT 19/16 A3015 RMK A01 T01880164  RH  086%=      5-min Rain = 0
KSE2 130955Z 10004KT 19/16 A3015 RMK A01 T01870164  RH  087%=      5-min Rain = 0
KSE2 130956Z 11004KT 19/16 A3015 RMK A01 T01860164  RH  087%=      5-min Rain = 0
KSE2 130957Z 12004KT 19/17 A3015 RMK A01 T01860165  RH  087%=      5-min Rain = 0
KSE2 130958Z 13004KT 19/16 A3015 RMK A01 T01850164  RH  088%=      5-min Rain = 0
KSE2 130959Z 13004KT 18/16 A3015 RMK A01 T01840164  RH  088%=      5-min Rain = 0
KSE2 131000Z 13004KT 18/16 A3015 RMK A01 T01830163  RH  088%=      5-min Rain = 0
KSE2 131001Z 14004KT 18/16 A3015 RMK A01 T01820163  RH  089%=      5-min Rain = 0
KSE2 131002Z 13004KT 18/16 A3015 RMK A01 T01810163  RH  089%=      5-min Rain = 0
KSE2 131003Z 13004KT 18/16 A3015 RMK A01 T01810164  RH  090%=      5-min Rain = 0
KSE2 131004Z 13003KT 18/16 A3015 RMK A01 T01810164  RH  090%=      5-min Rain = 0
KSE2 131005Z 13004KT 18/16 A3015 RMK A01 T01800164  RH  090%=      5-min Rain = 0
KSE2 131006Z 13003KT 18/16 A3015 RMK A01 T01800164  RH  090%=      5-min Rain = 0
KSE2 131007Z 13003KT 18/16 A3015 RMK A01 T01800164  RH  090%=      5-min Rain = 0
KSE2 131008Z 14003KT 18/16 A3015 RMK A01 T01800164  RH  090%=      5-min Rain = 0
KSE2 131009Z 14003KT 18/16 A3015 RMK A01 T01800164  RH  090%=      5-min Rain = 0
KSE2 131010Z 14003KT 18/16 A3015 RMK A01 T01800164  RH  091%=      5-min Rain = 0
KSE2 131011Z 14003KT 18/16 A3015 RMK A01 T01790164  RH  091%=      5-min Rain = 0
KSE2 131012Z 13003KT 18/16 A3015 RMK A01 T01790164  RH  091%=      5-min Rain = 0
KSE2 131013Z 14003KT 18/16 A3015 RMK A01 T01790164  RH  091%=      5-min Rain = 0
KSE2 131014Z 13003KT 18/16 A3015 RMK A01 T01790164  RH  091%=      5-min Rain = 0
KSE2 131015Z 14003KT 18/16 A3015 RMK A01 T01790164  RH  091%=      5-min Rain = 0
KSE2 131016Z 13003KT 18/16 A3015 RMK A01 T01780164  RH  091%=      5-min Rain = 0
KSE2 131017Z 14003KT 18/16 A3015 RMK A01 T01780164  RH  091%=      5-min Rain = 0
KSE2 131018Z 14003KT 18/16 A3015 RMK A01 T01780164  RH  091%=      5-min Rain = 0
KSE2 131019Z 14003KT 18/16 A3015 RMK A01 T01780164  RH  091%=      5-min Rain = 0
KSE2 131020Z 14003KT 18/16 A3015 RMK A01 T01780164  RH  091%=      5-min Rain = 0
KSE2 131021Z 15003KT 18/16 A3016 RMK A01 T01780164  RH  092%=      5-min Rain = 0
KSE2 131022Z 15003KT 18/16 A3016 RMK A01 T01780164  RH  092%=      5-min Rain = 0
KSE2 131023Z 15003KT 18/16 A3016 RMK A01 T01770164  RH  092%=      5-min Rain = 0
KSE2 131024Z 15002KT 18/16 A3016 RMK A01 T01780164  RH  092%=      5-min Rain = 0
KSE2 131025Z 14003KT 18/16 A3016 RMK A01 T01770163  RH  092%=      5-min Rain = 0
KSE2 131026Z 13002KT 18/16 A3016 RMK A01 T01770164  RH  092%=      5-min Rain = 0
KSE2 131027Z 13002KT 18/16 A3016 RMK A01 T01770163  RH  092%=      5-min Rain = 0
KSE2 131028Z 13002KT 18/16 A3016 RMK A01 T01770163  RH  092%=      5-min Rain = 0
KSE2 131029Z 12002KT 18/16 A3016 RMK A01 T01770164  RH  092%=      5-min Rain = 0
KSE2 131030Z 12002KT 18/16 A3016 RMK A01 T01760164  RH  092%=      5-min Rain = 0
KSE2 131031Z 12002KT 18/17 A3016 RMK A01 T01770165  RH  093%=      5-min Rain = 0
KSE2 131032Z 11002KT 18/16 A3016 RMK A01 T01760164  RH  093%=      5-min Rain = 0
KSE2 131033Z 11002KT 18/16 A3016 RMK A01 T01760164  RH  093%=      5-min Rain = 0
KSE2 131034Z 11002KT 18/16 A3016 RMK A01 T01760164  RH  093%=      5-min Rain = 0
KSE2 131035Z 12002KT 18/16 A3016 RMK A01 T01750164  RH  093%=      5-min Rain = 0
KSE2 131036Z 12002KT 18/16 A3016 RMK A01 T01750164  RH  093%=      5-min Rain = 0
KSE2 131037Z 12002KT 18/16 A3016 RMK A01 T01750164  RH  093%=      5-min Rain = 0
KSE2 131038Z 12002KT 18/16 A3016 RMK A01 T01750164  RH  093%=      5-min Rain = 0
KSE2 131039Z 12002KT 18/16 A3016 RMK A01 T01750164  RH  094%=      5-min Rain = 0
KSE2 131040Z 12002KT 18/16 A3016 RMK A01 T01750164  RH  094%=      5-min Rain = 0
KSE2 131041Z 12002KT 17/16 A3016 RMK A01 T01740164  RH  094%=      5-min Rain = 0
KSE2 131042Z 12001KT 17/16 A3016 RMK A01 T01740164  RH  094%=      5-min Rain = 0
KSE2 131043Z 12001KT 17/16 A3016 RMK A01 T01740163  RH  094%=      5-min Rain = 0
KSE2 131044Z 12001KT 17/16 A3016 RMK A01 T01730163  RH  094%=      5-min Rain = 0
KSE2 131045Z 12001KT 17/16 A3016 RMK A01 T01730163  RH  094%=      5-min Rain = 0
KSE2 131046Z 12001KT 17/16 A3016 RMK A01 T01720162  RH  094%=      5-min Rain = 0
KSE2 131047Z 12001KT 17/16 A3016 RMK A01 T01720162  RH  094%=      5-min Rain = 0
KSE2 131048Z 12001KT 17/16 A3016 RMK A01 T01720162  RH  094%=      5-min Rain = 0
KSE2 131049Z 12001KT 17/16 A3016 RMK A01 T01720161  RH  094%=      5-min Rain = 0
KSE2 131050Z 11001KT 17/16 A3016 RMK A01 T01720162  RH  094%=      5-min Rain = 0
KSE2 131051Z 11001KT 17/16 A3016 RMK A01 T01710162  RH  094%=      5-min Rain = 0
KSE2 131052Z 09001KT 17/16 A3016 RMK A01 T01710161  RH  094%=      5-min Rain = 0
KSE2 131053Z 09001KT 17/16 A3016 RMK A01 T01710162  RH  094%=      5-min Rain = 0
KSE2 131054Z 08001KT 17/16 A3016 RMK A01 T01710161  RH  094%=      5-min Rain = 0
KSE2 131055Z 09001KT 17/16 A3016 RMK A01 T01710161  RH  094%=      5-min Rain = 0
KSE2 131056Z 09001KT 17/16 A3016 RMK A01 T01710162  RH  094%=      5-min Rain = 0
KSE2 131057Z 09002KT 17/16 A3016 RMK A01 T01710162  RH  094%=      5-min Rain = 0
KSE2 131058Z 09002KT 17/16 A3016 RMK A01 T01710162  RH  094%=      5-min Rain = 0
KSE2 131059Z 09002KT 17/16 A3016 RMK A01 T01710161  RH  094%=      5-min Rain = 0
KSE2 131100Z 09002KT 17/16 A3016 RMK A01 T01710161  RH  094%=      5-min Rain = 0
KSE2 131101Z 09002KT 17/16 A3016 RMK A01 T01710162  RH  094%=      5-min Rain = 0
KSE2 131102Z 09002KT 17/16 A3016 RMK A01 T01710162  RH  094%=      5-min Rain = 0
KSE2 131103Z 08002KT 17/16 A3016 RMK A01 T01720162  RH  094%=      5-min Rain = 0
KSE2 131104Z 08002KT 17/16 A3016 RMK A01 T01720162  RH  094%=      5-min Rain = 0
KSE2 131105Z 08003KT 17/16 A3016 RMK A01 T01720162  RH  094%=      5-min Rain = 0
KSE2 131106Z 08002KT 17/16 A3016 RMK A01 T01720162  RH  094%=      5-min Rain = 0
KSE2 131107Z 08002KT 17/16 A3016 RMK A01 T01720162  RH  094%=      5-min Rain = 0
KSE2 131108Z 07002KT 17/16 A3016 RMK A01 T01730163  RH  094%=      5-min Rain = 0
KSE2 131109Z 07002KT 17/16 A3016 RMK A01 T01730162  RH  094%=      5-min Rain = 0
KSE2 131110Z 07002KT 17/16 A3016 RMK A01 T01730163  RH  094%=      5-min Rain = 0
KSE2 131111Z 08002KT 17/16 A3017 RMK A01 T01740163  RH  093%=      5-min Rain = 0
KSE2 131112Z 08003KT 17/16 A3017 RMK A01 T01740163  RH  093%=      5-min Rain = 0
KSE2 131113Z 08002KT 18/16 A3017 RMK A01 T01750164  RH  093%=      5-min Rain = 0
KSE2 131114Z 07002KT 18/16 A3017 RMK A01 T01750163  RH  093%=      5-min Rain = 0
KSE2 131115Z 07002KT 18/16 A3017 RMK A01 T01760163  RH  093%=      5-min Rain = 0
KSE2 131116Z 07002KT 18/16 A3017 RMK A01 T01760163  RH  092%=      5-min Rain = 0
KSE2 131117Z 07003KT 18/16 A3017 RMK A01 T01760163  RH  092%=      5-min Rain = 0
KSE2 131118Z 07002KT 18/16 A3017 RMK A01 T01770163  RH  092%=      5-min Rain = 0
KSE2 131119Z 07002KT 18/16 A3017 RMK A01 T01770164  RH  092%=      5-min Rain = 0
KSE2 131120Z 07002KT 18/16 A3017 RMK A01 T01780164  RH  092%=      5-min Rain = 0
KSE2 131121Z 08002KT 18/16 A3017 RMK A01 T01780164  RH  091%=      5-min Rain = 0
KSE2 131122Z 08002KT 18/16 A3017 RMK A01 T01790164  RH  091%=      5-min Rain = 0
KSE2 131123Z 08003KT 18/16 A3017 RMK A01 T01780163  RH  091%=      5-min Rain = 0
KSE2 131124Z 08002KT 18/16 A3017 RMK A01 T01790164  RH  091%=      5-min Rain = 0
KSE2 131125Z 07002KT 18/16 A3017 RMK A01 T01790164  RH  091%=      5-min Rain = 0
KSE2 131126Z 07002KT 18/16 A3017 RMK A01 T01790164  RH  091%=      5-min Rain = 0
KSE2 131127Z 07002KT 18/16 A3018 RMK A01 T01790164  RH  091%=      5-min Rain = 0
KSE2 131128Z 07003KT 18/16 A3018 RMK A01 T01790164  RH  091%=      5-min Rain = 0
KSE2 131129Z 07002KT 18/16 A3018 RMK A01 T01790164  RH  091%=      5-min Rain = 0
KSE2 131130Z 07002KT 18/16 A3018 RMK A01 T01790164  RH  091%=      5-min Rain = 0
KSE2 131131Z 06002KT 18/16 A3018 RMK A01 T01790164  RH  091%=      5-min Rain = 0
KSE2 131132Z 06002KT 18/16 A3018 RMK A01 T01790164  RH  091%=      5-min Rain = 0
KSE2 131133Z 06002KT 18/16 A3018 RMK A01 T01790164  RH  091%=      5-min Rain = 0
KSE2 131134Z 05002KT 18/16 A3018 RMK A01 T01790164  RH  090%=      5-min Rain = 0
KSE2 131135Z 05002KT 18/16 A3018 RMK A01 T01800164  RH  090%=      5-min Rain = 0
KSE2 131136Z 05002KT 18/16 A3018 RMK A01 T01800164  RH  090%=      5-min Rain = 0
KSE2 131137Z 05002KT 18/17 A3018 RMK A01 T01810165  RH  090%=      5-min Rain = 0
KSE2 131138Z 06002KT 18/17 A3018 RMK A01 T01810165  RH  090%=      5-min Rain = 0
KSE2 131139Z 06002KT 18/17 A3018 RMK A01 T01810165  RH  090%=      5-min Rain = 0
KSE2 131140Z 06002KT 18/17 A3018 RMK A01 T01820165  RH  090%=      5-min Rain = 0
KSE2 131141Z 06002KT 18/17 A3018 RMK A01 T01820165  RH  090%=      5-min Rain = 0
KSE2 131142Z 06002KT 18/17 A3018 RMK A01 T01820165  RH  090%=      5-min Rain = 0
KSE2 131143Z 06002KT 18/17 A3018 RMK A01 T01820165  RH  090%=      5-min Rain = 0
KSE2 131144Z 06002KT 18/17 A3018 RMK A01 T01820165  RH  090%=      5-min Rain = 0
KSE2 131145Z 06002KT 18/17 A3018 RMK A01 T01820165  RH  090%=      5-min Rain = 0
KSE2 131146Z 06002KT 18/17 A3018 RMK A01 T01820165  RH  090%=      5-min Rain = 0
KSE2 131147Z 06002KT 18/17 A3018 RMK A01 T01820165  RH  089%=      5-min Rain = 0
KSE2 131148Z 06002KT 18/17 A3018 RMK A01 T01830166  RH  090%=      5-min Rain = 0
KSE2 131149Z 07002KT 18/17 A3018 RMK A01 T01830166  RH  089%=      5-min Rain = 0
KSE2 131150Z 07002KT 18/17 A3018 RMK A01 T01840165  RH  089%=      5-min Rain = 0
KSE2 131151Z 07002KT 18/17 A3018 RMK A01 T01840165  RH  089%=      5-min Rain = 0
KSE2 131152Z 07002KT 19/17 A3018 RMK A01 T01850165  RH  088%=      5-min Rain = 0
KSE2 131153Z 07002KT 19/17 A3018 RMK A01 T01850165  RH  088%=      5-min Rain = 0
KSE2 131154Z 07002KT 19/17 A3018 RMK A01 T01850166  RH  088%=      5-min Rain = 0
KSE2 131155Z 07002KT 19/17 A3018 RMK A01 T01860166  RH  088%=      5-min Rain = 0
KSE2 131156Z 08002KT 19/17 A3018 RMK A01 T01860166  RH  088%=      5-min Rain = 0
KSE2 131157Z 08002KT 19/17 A3018 RMK A01 T01860166  RH  088%=      5-min Rain = 0
KSE2 131158Z 08002KT 19/17 A3018 RMK A01 T01860166  RH  088%=      5-min Rain = 0
KSE2 131159Z 08002KT 19/17 A3019 RMK A01 T01860166  RH  088%=      5-min Rain = 0
KSE2 131200Z 07002KT 19/17 A3019 RMK A01 T01870166  RH  088%=      5-min Rain = 0
KSE2 131201Z 07002KT 19/17 A3019 RMK A01 T01880166  RH  087%=      5-min Rain = 0
KSE2 131202Z 07003KT 19/17 A3019 RMK A01 T01880165  RH  087%=      5-min Rain = 0
KSE2 131203Z 07003KT 19/17 A3019 RMK A01 T01880165  RH  087%=      5-min Rain = 0
KSE2 131204Z 07003KT 19/17 A3019 RMK A01 T01890166  RH  087%=      5-min Rain = 0
KSE2 131205Z 07003KT 19/17 A3019 RMK A01 T01890166  RH  087%=      5-min Rain = 0
KSE2 131206Z 08002KT 19/17 A3019 RMK A01 T01890166  RH  087%=      5-min Rain = 0
KSE2 131207Z 08003KT 19/17 A3019 RMK A01 T01890167  RH  087%=      5-min Rain = 0
KSE2 131208Z 07002KT 19/17 A3019 RMK A01 T01890167  RH  087%=      5-min Rain = 0
KSE2 131209Z 07002KT 19/17 A3019 RMK A01 T01890167  RH  087%=      5-min Rain = 0
KSE2 131210Z 07002KT 19/17 A3019 RMK A01 T01890168  RH  087%=      5-min Rain = 0
KSE2 131211Z 07002KT 19/17 A3019 RMK A01 T01890168  RH  087%=      5-min Rain = 0
KSE2 131212Z 07002KT 19/17 A3019 RMK A01 T01880167  RH  087%=      5-min Rain = 0
KSE2 131213Z 07002KT 19/17 A3019 RMK A01 T01880167  RH  087%=      5-min Rain = 0
KSE2 131214Z 07002KT 19/17 A3019 RMK A01 T01880167  RH  088%=      5-min Rain = 0
KSE2 131215Z 07002KT 19/17 A3019 RMK A01 T01880168  RH  088%=      5-min Rain = 0
KSE2 131216Z 08003KT 19/17 A3019 RMK A01 T01880168  RH  088%=      5-min Rain = 0
KSE2 131217Z 08002KT 19/17 A3019 RMK A01 T01880168  RH  088%=      5-min Rain = 0
KSE2 131218Z 08003KT 19/17 A3019 RMK A01 T01880168  RH  088%=      5-min Rain = 0
KSE2 131219Z 09003KT 19/17 A3019 RMK A01 T01880167  RH  088%=      5-min Rain = 0
KSE2 131220Z 08003KT 19/17 A3019 RMK A01 T01880167  RH  088%=      5-min Rain = 0
KSE2 131221Z 08003KT 19/17 A3019 RMK A01 T01880167  RH  088%=      5-min Rain = 0
KSE2 131222Z 08003KT 19/17 A3019 RMK A01 T01880167  RH  088%=      5-min Rain = 0
KSE2 131223Z 08003KT 19/17 A3019 RMK A01 T01880167  RH  087%=      5-min Rain = 0
KSE2 131224Z 07003KT 19/17 A3019 RMK A01 T01880167  RH  087%=      5-min Rain = 0
KSE2 131225Z 07003KT 19/17 A3019 RMK A01 T01880168  RH  088%=      5-min Rain = 0
KSE2 131226Z 07003KT 19/17 A3019 RMK A01 T01880168  RH  088%=      5-min Rain = 0
KSE2 131227Z 07002KT 19/17 A3019 RMK A01 T01880168  RH  088%=      5-min Rain = 0
KSE2 131228Z 06002KT 19/17 A3019 RMK A01 T01890169  RH  088%=      5-min Rain = 0
KSE2 131229Z 06002KT 19/17 A3019 RMK A01 T01890168  RH  088%=      5-min Rain = 0
KSE2 131230Z 06002KT 19/17 A3019 RMK A01 T01890169  RH  088%=      5-min Rain = 0
KSE2 131231Z 06002KT 19/17 A3019 RMK A01 T01890169  RH  088%=      5-min Rain = 0
KSE2 131232Z 06002KT 19/17 A3019 RMK A01 T01900170  RH  088%=      5-min Rain = 0
KSE2 131233Z 05002KT 19/17 A3019 RMK A01 T01900170  RH  088%=      5-min Rain = 0
KSE2 131234Z 05003KT 19/17 A3019 RMK A01 T01900171  RH  088%=      5-min Rain = 0
KSE2 131235Z 05003KT 19/17 A3019 RMK A01 T01900170  RH  088%=      5-min Rain = 0
KSE2 131236Z 06004KT 19/17 A3019 RMK A01 T01910170  RH  088%=      5-min Rain = 0
KSE2 131237Z 06003KT 19/17 A3019 RMK A01 T01910170  RH  087%=      5-min Rain = 0
KSE2 131238Z 05002KT 19/17 A3019 RMK A01 T01910170  RH  087%=      5-min Rain = 0
KSE2 131239Z 06003KT 19/17 A3019 RMK A01 T01920170  RH  087%=      5-min Rain = 0
KSE2 131240Z 06003KT 19/17 A3019 RMK A01 T01920170  RH  087%=      5-min Rain = 0
KSE2 131241Z 06003KT 19/17 A3019 RMK A01 T01920170  RH  087%=      5-min Rain = 0
KSE2 131242Z 07003KT 19/17 A3019 RMK A01 T01920170  RH  087%=      5-min Rain = 0
KSE2 131243Z 06003KT 19/17 A3019 RMK A01 T01920171  RH  087%=      5-min Rain = 0
KSE2 131244Z 06003KT 19/17 A3019 RMK A01 T01920171  RH  088%=      5-min Rain = 0
KSE2 131245Z 06003KT 19/17 A302 RMK A01 T01920173  RH  088%=      5-min Rain = 0
KSE2 131246Z 06003KT 19/17 A302 RMK A01 T01930172  RH  088%=      5-min Rain = 0
KSE2 131247Z 06004KT 19/17 A302 RMK A01 T01920172  RH  088%=      5-min Rain = 0
KSE2 131248Z 06003KT 19/17 A302 RMK A01 T01930172  RH  088%=      5-min Rain = 0
KSE2 131249Z 06003KT 19/17 A302 RMK A01 T01920173  RH  088%=      5-min Rain = 0
KSE2 131250Z 05003KT 19/17 A302 RMK A01 T01930173  RH  088%=      5-min Rain = 0
KSE2 131251Z 05003KT 19/17 A302 RMK A01 T01920172  RH  088%=      5-min Rain = 0
KSE2 131252Z 05002KT 19/17 A302 RMK A01 T01920172  RH  088%=      5-min Rain = 0
KSE2 131253Z 05003KT 19/17 A302 RMK A01 T01920172  RH  088%=      5-min Rain = 0
KSE2 131254Z 06003KT 19/17 A302 RMK A01 T01930172  RH  087%=      5-min Rain = 0
KSE2 131255Z 05003KT 19/17 A302 RMK A01 T01940172  RH  087%=      5-min Rain = 0
KSE2 131256Z 05003KT 19/17 A302 RMK A01 T01940171  RH  086%=      5-min Rain = 0
KSE2 131257Z 05003KT 20/17 A302 RMK A01 T01950172  RH  087%=      5-min Rain = 0
KSE2 131258Z 05003KT 20/17 A302 RMK A01 T01970173  RH  086%=      5-min Rain = 0
KSE2 131259Z 06003KT 20/17 A302 RMK A01 T01980174  RH  086%=      5-min Rain = 0
KSE2 131300Z 05003KT 20/18 A302 RMK A01 T01990175  RH  086%=      5-min Rain = 0
KSE2 131301Z 06003KT 20/17 A302 RMK A01 T02000173  RH  084%=      5-min Rain = 0
KSE2 131302Z 07003KT 20/17 A302 RMK A01 T02010174  RH  084%=      5-min Rain = 0
KSE2 131303Z 05002KT 20/17 A302 RMK A01 T02020172  RH  083%=      5-min Rain = 0
KSE2 131304Z 08003KT 20/17 A302 RMK A01 T02020171  RH  083%=      5-min Rain = 0
KSE2 131305Z 06003KT 20/17 A302 RMK A01 T02030172  RH  082%=      5-min Rain = 0
KSE2 131306Z 06003KT 20/17 A302 RMK A01 T02030172  RH  082%=      5-min Rain = 0
KSE2 131307Z 06003KT 20/17 A302 RMK A01 T02030171  RH  082%=      5-min Rain = 0
KSE2 131308Z 07003KT 20/17 A302 RMK A01 T02030172  RH  082%=      5-min Rain = 0
KSE2 131309Z 08004KT 20/17 A302 RMK A01 T02030172  RH  082%=      5-min Rain = 0
KSE2 131310Z 09004KT 20/17 A302 RMK A01 T02030172  RH  082%=      5-min Rain = 0
KSE2 131311Z 08003KT 20/17 A302 RMK A01 T02030172  RH  082%=      5-min Rain = 0
KSE2 131312Z 07004KT 20/17 A3021 RMK A01 T02040173  RH  083%=      5-min Rain = 0
KSE2 131313Z 06004KT 20/17 A3021 RMK A01 T02040171  RH  081%=      5-min Rain = 0
KSE2 131314Z 08004KT 20/17 A3021 RMK A01 T02040171  RH  081%=      5-min Rain = 0
KSE2 131315Z 08005KT 20/17 A3021 RMK A01 T02040170  RH  081%=      5-min Rain = 0
KSE2 131316Z 08003KT 20/17 A3021 RMK A01 T02040169  RH  080%=      5-min Rain = 0
KSE2 131317Z 08003KT 20/17 A3021 RMK A01 T02040171  RH  081%=      5-min Rain = 0
KSE2 131318Z 10006KT 21/17 A3021 RMK A01 T02060170  RH  080%=      5-min Rain = 0
KSE2 131319Z 10005KT 21/17 A3021 RMK A01 T02060170  RH  080%=      5-min Rain = 0
KSE2 131320Z 08004KT 21/17 A3021 RMK A01 T02070172  RH  080%=      5-min Rain = 0
KSE2 131321Z 08006KT 21/17 A3021 RMK A01 T02080171  RH  079%=      5-min Rain = 0
KSE2 131322Z 09006KT 21/17 A3021 RMK A01 T02090169  RH  078%=      5-min Rain = 0
KSE2 131323Z 10005KT 21/17 A3021 RMK A01 T02090166  RH  077%=      5-min Rain = 0
KSE2 131324Z 09004KT 21/17 A3021 RMK A01 T02090168  RH  078%=      5-min Rain = 0
KSE2 131325Z 09007KT 21/16 A3021 RMK A01 T02090163  RH  075%=      5-min Rain = 0
KSE2 131326Z 09007KT 21/16 A3021 RMK A01 T02090164  RH  075%=      5-min Rain = 0
KSE2 131327Z 08006KT 21/16 A3021 RMK A01 T02100163  RH  075%=      5-min Rain = 0
KSE2 131328Z 10006KT 21/16 A3021 RMK A01 T02100163  RH  074%=      5-min Rain = 0
KSE2 131329Z 08005KT 21/16 A3021 RMK A01 T02100159  RH  072%=      5-min Rain = 0
KSE2 131330Z 09006KT 21/16 A3021 RMK A01 T02110162  RH  073%=      5-min Rain = 0
KSE2 131331Z 08006KT 21/16 A3021 RMK A01 T02120163  RH  074%=      5-min Rain = 0
KSE2 131332Z 08006KT 21/16 A3021 RMK A01 T02120162  RH  073%=      5-min Rain = 0
KSE2 131333Z 08005KT 21/16 A3021 RMK A01 T02120162  RH  073%=      5-min Rain = 0
KSE2 131334Z 07006KT 21/16 A3021 RMK A01 T02130164  RH  073%=      5-min Rain = 0
KSE2 131335Z 07006KT 21/17 A3021 RMK A01 T02140165  RH  074%=      5-min Rain = 0
KSE2 131336Z 08005KT 21/16 A3021 RMK A01 T02140163  RH  073%=      5-min Rain = 0
KSE2 131337Z 08005KT 21/16 A3021 RMK A01 T02140161  RH  072%=      5-min Rain = 0
KSE2 131338Z 07004KT 21/16 A3021 RMK A01 T02140162  RH  072%=      5-min Rain = 0
KSE2 131339Z 08006KT 22/16 A3021 RMK A01 T02150163  RH  072%=      5-min Rain = 0
KSE2 131340Z 09006KT 22/16 A3021 RMK A01 T02150160  RH  071%=      5-min Rain = 0
KSE2 131341Z 07004KT 22/16 A3021 RMK A01 T02150163  RH  072%=      5-min Rain = 0
KSE2 131342Z 07006KT 22/16 A3021 RMK A01 T02160163  RH  072%=      5-min Rain = 0
KSE2 131343Z 08006KT 22/16 A3021 RMK A01 T02160160  RH  070%=      5-min Rain = 0
KSE2 131344Z 08005KT 22/16 A3021 RMK A01 T02160159  RH  070%=      5-min Rain = 0
KSE2 131345Z 08005KT 22/16 A3021 RMK A01 T02160161  RH  071%=      5-min Rain = 0
KSE2 131346Z 07006KT 22/16 A3022 RMK A01 T02160157  RH  069%=      5-min Rain = 0
KSE2 131347Z 08006KT 22/16 A3022 RMK A01 T02160156  RH  069%=      5-min Rain = 0
KSE2 131348Z 06007KT 22/16 A3022 RMK A01 T02160158  RH  070%=      5-min Rain = 0
KSE2 131349Z 08007KT 22/16 A3022 RMK A01 T02170157  RH  069%=      5-min Rain = 0
KSE2 131350Z 08006KT 22/16 A3022 RMK A01 T02170157  RH  069%=      5-min Rain = 0
KSE2 131351Z 07005KT 22/16 A3022 RMK A01 T02170157  RH  068%=      5-min Rain = 0
KSE2 131352Z 07004KT 22/16 A3022 RMK A01 T02180158  RH  069%=      5-min Rain = 0
KSE2 131353Z 08005KT 22/16 A3022 RMK A01 T02180161  RH  070%=      5-min Rain = 0
KSE2 131354Z 07006KT 22/16 A3022 RMK A01 T02200155  RH  067%=      5-min Rain = 0
KSE2 131355Z 08007KT 22/15 A3022 RMK A01 T02190154  RH  066%=      5-min Rain = 0
KSE2 131356Z 07006KT 22/15 A3022 RMK A01 T02200153  RH  066%=      5-min Rain = 0
KSE2 131357Z 09008KT 22/15 A3022 RMK A01 T02200152  RH  065%=      5-min Rain = 0
KSE2 131358Z 08007KT 22/15 A3022 RMK A01 T02200151  RH  065%=      5-min Rain = 0
KSE2 131359Z 08007KT 22/15 A3022 RMK A01 T02200151  RH  065%=      5-min Rain = 0
KSE2 131400Z 08008KT 22/15 A3022 RMK A01 T02200150  RH  064%=      5-min Rain = 0
KSE2 131401Z 07007KT 22/15 A3022 RMK A01 T02210150  RH  064%=      5-min Rain = 0
KSE2 131402Z 07008KT 22/15 A3022 RMK A01 T02210146  RH  062%=      5-min Rain = 0
KSE2 131403Z 07008KT 22/15 A3022 RMK A01 T02220150  RH  063%=      5-min Rain = 0
KSE2 131404Z 08006KT 22/15 A3022 RMK A01 T02230149  RH  063%=      5-min Rain = 0
KSE2 131405Z 08006KT 22/15 A3022 RMK A01 T02230150  RH  063%=      5-min Rain = 0
KSE2 131406Z 07007KT 23/15 A3022 RMK A01 T02250151  RH  063%=      5-min Rain = 0
KSE2 131407Z 09008KT 23/15 A3022 RMK A01 T02250146  RH  061%=      5-min Rain = 0
KSE2 131408Z 09009KT 23/14 A3022 RMK A01 T02250142  RH  059%=      5-min Rain = 0
KSE2 131409Z 08008KT 23/14 A3022 RMK A01 T02250144  RH  060%=      5-min Rain = 0
KSE2 131410Z 09007KT 23/14 A3022 RMK A01 T02250144  RH  060%=      5-min Rain = 0
KSE2 131411Z 09009KT 23/14 A3022 RMK A01 T02250142  RH  059%=      5-min Rain = 0
KSE2 131412Z 09007KT 23/14 A3022 RMK A01 T02250143  RH  060%=      5-min Rain = 0
KSE2 131413Z 08005KT 23/15 A3022 RMK A01 T02250145  RH  061%=      5-min Rain = 0
KSE2 131414Z 08008KT 23/15 A3022 RMK A01 T02270150  RH  062%=      5-min Rain = 0
KSE2 131415Z 07008KT 23/14 A3022 RMK A01 T02280143  RH  059%=      5-min Rain = 0
KSE2 131416Z 07006KT 23/15 A3022 RMK A01 T02270146  RH  060%=      5-min Rain = 0
KSE2 131417Z 10004KT 23/15 A3022 RMK A01 T02280149  RH  061%=      5-min Rain = 0
KSE2 131418Z 09006KT 23/15 A3022 RMK A01 T02300147  RH  059%=      5-min Rain = 0
KSE2 131419Z 09005KT 23/15 A3022 RMK A01 T02300146  RH  059%=      5-min Rain = 0
KSE2 131420Z 09004KT 23/15 A3022 RMK A01 T02310149  RH  060%=      5-min Rain = 0
KSE2 131421Z 07005KT 23/15 A3022 RMK A01 T02320148  RH  059%=      5-min Rain = 0
KSE2 131422Z 07006KT 23/15 A3022 RMK A01 T02330148  RH  059%=      5-min Rain = 0
KSE2 131423Z 08006KT 23/15 A3022 RMK A01 T02320147  RH  059%=      5-min Rain = 0
KSE2 131424Z 07006KT 23/15 A3022 RMK A01 T02320147  RH  059%=      5-min Rain = 0
KSE2 131425Z 08005KT 23/15 A3022 RMK A01 T02320148  RH  059%=      5-min Rain = 0
KSE2 131426Z 08004KT 23/15 A3022 RMK A01 T02340151  RH  060%=      5-min Rain = 0
KSE2 131427Z 09004KT 24/15 A3022 RMK A01 T02350150  RH  059%=      5-min Rain = 0
KSE2 131428Z 10006KT 24/15 A3022 RMK A01 T02360148  RH  058%=      5-min Rain = 0
KSE2 131429Z 10008KT 24/15 A3022 RMK A01 T02350147  RH  058%=      5-min Rain = 0
KSE2 131430Z 11007KT 23/14 A3022 RMK A01 T02340144  RH  057%=      5-min Rain = 0
KSE2 131431Z 09008KT 23/15 A3022 RMK A01 T02330146  RH  058%=      5-min Rain = 0
KSE2 131432Z 10008KT 23/14 A3022 RMK A01 T02330143  RH  057%=      5-min Rain = 0
KSE2 131433Z 11007KT 23/14 A3022 RMK A01 T02330143  RH  057%=      5-min Rain = 0
KSE2 131434Z 09005KT 23/15 A3022 RMK A01 T02340148  RH  059%=      5-min Rain = 0
KSE2 131435Z 10005KT 24/15 A3022 RMK A01 T02360150  RH  059%=      5-min Rain = 0
KSE2 131436Z 10008KT 24/14 A3022 RMK A01 T02370144  RH  056%=      5-min Rain = 0
KSE2 131437Z 09008KT 24/14 A3022 RMK A01 T02350143  RH  056%=      5-min Rain = 0
KSE2 131438Z 07007KT 23/14 A3022 RMK A01 T02340143  RH  057%=      5-min Rain = 0
KSE2 131439Z 07005KT 23/15 A3022 RMK A01 T02340148  RH  058%=      5-min Rain = 0
KSE2 131440Z 08007KT 24/15 A3022 RMK A01 T02360148  RH  058%=      5-min Rain = 0
KSE2 131441Z 08005KT 24/15 A3022 RMK A01 T02380153  RH  059%=      5-min Rain = 0
KSE2 131442Z 08006KT 24/15 A3022 RMK A01 T02390147  RH  056%=      5-min Rain = 0
KSE2 131443Z 08006KT 24/15 A3022 RMK A01 T02370145  RH  056%=      5-min Rain = 0
KSE2 131444Z 08007KT 24/15 A3022 RMK A01 T02360146  RH  057%=      5-min Rain = 0
KSE2 131445Z 09008KT 23/15 A3022 RMK A01 T02340145  RH  057%=      5-min Rain = 0
KSE2 131446Z 07007KT 23/14 A3022 RMK A01 T02330143  RH  057%=      5-min Rain = 0
KSE2 131447Z 07008KT 23/15 A3022 RMK A01 T02320147  RH  059%=      5-min Rain = 0
KSE2 131448Z 08007KT 23/15 A3022 RMK A01 T02320145  RH  058%=      5-min Rain = 0
KSE2 131449Z 07006KT 23/14 A3022 RMK A01 T02310144  RH  058%=      5-min Rain = 0
KSE2 131450Z 08007KT 23/15 A3022 RMK A01 T02310146  RH  059%=      5-min Rain = 0
KSE2 131451Z 08008KT 23/14 A3022 RMK A01 T02310144  RH  058%=      5-min Rain = 0
KSE2 131452Z 10007KT 23/15 A3022 RMK A01 T02310146  RH  059%=      5-min Rain = 0
KSE2 131453Z 10007KT 23/15 A3022 RMK A01 T02320145  RH  058%=      5-min Rain = 0
KSE2 131454Z 09007KT 23/14 A3022 RMK A01 T02320144  RH  058%=      5-min Rain = 0
KSE2 131455Z 07006KT 23/15 A3022 RMK A01 T02330148  RH  059%=      5-min Rain = 0
KSE2 131456Z 08007KT 24/15 A3022 RMK A01 T02350149  RH  059%=      5-min Rain = 0
KSE2 131457Z 08005KT 24/15 A3022 RMK A01 T02350149  RH  058%=      5-min Rain = 0
KSE2 131458Z 08006KT 24/15 A3022 RMK A01 T02360149  RH  058%=      5-min Rain = 0
KSE2 131459Z 08005KT 24/15 A3022 RMK A01 T02360146  RH  057%=      5-min Rain = 0
KSE2 131500Z 08007KT 24/15 A3022 RMK A01 T02350146  RH  057%=      5-min Rain = 0
KSE2 131501Z 08008KT 23/15 A3022 RMK A01 T02340146  RH  058%=      5-min Rain = 0
KSE2 131502Z 08005KT 23/15 A3022 RMK A01 T02330147  RH  058%=      5-min Rain = 0
KSE2 131503Z 08006KT 23/15 A3022 RMK A01 T02330146  RH  058%=      5-min Rain = 0
KSE2 131504Z 07005KT 23/15 A3022 RMK A01 T02330148  RH  059%=      5-min Rain = 0
KSE2 131505Z 07006KT 23/15 A3022 RMK A01 T02340149  RH  059%=      5-min Rain = 0
KSE2 131506Z 07007KT 24/15 A3022 RMK A01 T02350149  RH  059%=      5-min Rain = 0
KSE2 131507Z 07006KT 24/15 A3022 RMK A01 T02350147  RH  058%=      5-min Rain = 0
KSE2 131508Z 08006KT 24/15 A3022 RMK A01 T02350147  RH  057%=      5-min Rain = 0
KSE2 131509Z 07007KT 24/15 A3022 RMK A01 T02360147  RH  057%=      5-min Rain = 0
KSE2 131510Z 07007KT 24/15 A3022 RMK A01 T02360145  RH  056%=      5-min Rain = 0
KSE2 131511Z 07006KT 24/15 A3022 RMK A01 T02360147  RH  057%=      5-min Rain = 0
KSE2 131512Z 06008KT 24/15 A3022 RMK A01 T02370149  RH  058%=      5-min Rain = 0
KSE2 131513Z 07007KT 24/15 A3022 RMK A01 T02380150  RH  058%=      5-min Rain = 0
KSE2 131514Z 08007KT 24/15 A3022 RMK A01 T02380148  RH  057%=      5-min Rain = 0
KSE2 131515Z 09008KT 24/15 A3022 RMK A01 T02370146  RH  057%=      5-min Rain = 0
KSE2 131516Z 08008KT 24/14 A3022 RMK A01 T02360144  RH  056%=      5-min Rain = 0
KSE2 131517Z 09005KT 24/15 A3022 RMK A01 T02350145  RH  057%=      5-min Rain = 0
KSE2 131518Z 09004KT 24/14 A3022 RMK A01 T02360143  RH  056%=      5-min Rain = 0
KSE2 131519Z 08004KT 24/15 A3022 RMK A01 T02370152  RH  059%=      5-min Rain = 0
KSE2 131520Z 09007KT 24/15 A3022 RMK A01 T02400151  RH  057%=      5-min Rain = 0
KSE2 131521Z 09006KT 24/15 A3022 RMK A01 T02400146  RH  056%=      5-min Rain = 0
KSE2 131522Z 06006KT 24/15 A3022 RMK A01 T02390148  RH  057%=      5-min Rain = 0
KSE2 131523Z 06006KT 24/15 A3022 RMK A01 T02390146  RH  056%=      5-min Rain = 0
KSE2 131524Z 06006KT 24/15 A3022 RMK A01 T02390148  RH  057%=      5-min Rain = 0
KSE2 131525Z 07005KT 24/15 A3022 RMK A01 T02400147  RH  056%=      5-min Rain = 0
KSE2 131526Z 08004KT 24/15 A3022 RMK A01 T02400149  RH  057%=      5-min Rain = 0
KSE2 131527Z 09005KT 24/16 A3022 RMK A01 T02420156  RH  059%=      5-min Rain = 0
KSE2 131528Z 10006KT 24/15 A3022 RMK A01 T02420147  RH  055%=      5-min Rain = 0
KSE2 131529Z 07006KT 24/15 A3022 RMK A01 T02390147  RH  056%=      5-min Rain = 0
KSE2 131530Z 08004KT 24/15 A3022 RMK A01 T02380148  RH  057%=      5-min Rain = 0
KSE2 131531Z 09005KT 24/15 A3022 RMK A01 T02400154  RH  059%=      5-min Rain = 0
KSE2 131532Z 08004KT 24/15 A3022 RMK A01 T02410147  RH  056%=      5-min Rain = 0
KSE2 131533Z 07005KT 24/15 A3022 RMK A01 T02400149  RH  057%=      5-min Rain = 0
KSE2 131534Z 08006KT 24/15 A3022 RMK A01 T02400148  RH  057%=      5-min Rain = 0
KSE2 131535Z 07007KT 24/15 A3022 RMK A01 T02400150  RH  057%=      5-min Rain = 0
KSE2 131536Z 07007KT 24/15 A3022 RMK A01 T02400148  RH  057%=      5-min Rain = 0
KSE2 131537Z 07006KT 24/15 A3022 RMK A01 T02390149  RH  057%=      5-min Rain = 0
KSE2 131538Z 08004KT 24/15 A3022 RMK A01 T02390147  RH  056%=      5-min Rain = 0
KSE2 131539Z 08004KT 24/15 A3022 RMK A01 T02390148  RH  057%=      5-min Rain = 0
KSE2 131540Z 06004KT 24/15 A3022 RMK A01 T02390147  RH  056%=      5-min Rain = 0
KSE2 131541Z 06004KT 24/15 A3022 RMK A01 T02390149  RH  057%=      5-min Rain = 0
KSE2 131542Z 10006KT 24/15 A3022 RMK A01 T02410153  RH  058%=      5-min Rain = 0
KSE2 131543Z 10007KT 24/15 A3022 RMK A01 T02430154  RH  057%=      5-min Rain = 0
KSE2 131544Z 10006KT 24/15 A3022 RMK A01 T02430150  RH  056%=      5-min Rain = 0
KSE2 131545Z 10004KT 24/15 A3022 RMK A01 T02410151  RH  057%=      5-min Rain = 0
KSE2 131546Z 10004KT 24/15 A3022 RMK A01 T02410152  RH  057%=      5-min Rain = 0
KSE2 131547Z 11003KT 24/15 A3022 RMK A01 T02410150  RH  057%=      5-min Rain = 0
KSE2 131548Z 11001KT 24/15 A3022 RMK A01 T02410147  RH  056%=      5-min Rain = 0
KSE2 131549Z 08003KT 24/15 A3022 RMK A01 T02410153  RH  058%=      5-min Rain = 0
KSE2 131550Z 09004KT 24/15 A3022 RMK A01 T02420150  RH  056%=      5-min Rain = 0
KSE2 131551Z 07003KT 24/15 A3022 RMK A01 T02420149  RH  056%=      5-min Rain = 0
KSE2 131552Z 07005KT 24/15 A3022 RMK A01 T02420151  RH  057%=      5-min Rain = 0
KSE2 131553Z 06003KT 24/15 A3022 RMK A01 T02420153  RH  058%=      5-min Rain = 0
KSE2 131554Z 09004KT 24/15 A3022 RMK A01 T02420149  RH  056%=      5-min Rain = 0
KSE2 131555Z 11008KT 24/15 A3022 RMK A01 T02420152  RH  057%=      5-min Rain = 0
KSE2 131556Z 10006KT 24/15 A3022 RMK A01 T02430150  RH  056%=      5-min Rain = 0
KSE2 131557Z 13005KT 24/15 A3022 RMK A01 T02420154  RH  058%=      5-min Rain = 0
KSE2 131558Z 13005KT 24/15 A3022 RMK A01 T02430150  RH  056%=      5-min Rain = 0
KSE2 131559Z 12004KT 24/15 A3022 RMK A01 T02420150  RH  056%=      5-min Rain = 0
KSE2 131600Z 11004KT 24/15 A3022 RMK A01 T02410152  RH  057%=      5-min Rain = 0
KSE2 131601Z 11001KT 24/15 A3022 RMK A01 T02410147  RH  056%=      5-min Rain = 0
KSE2 131602Z 11003KT 24/15 A3022 RMK A01 T02420150  RH  057%=      5-min Rain = 0
KSE2 131603Z 12007KT 24/15 A3022 RMK A01 T02430154  RH  057%=      5-min Rain = 0
KSE2 131604Z 13007KT 24/16 A3022 RMK A01 T02440155  RH  058%=      5-min Rain = 0
KSE2 131605Z 14005KT 25/16 A3022 RMK A01 T02450158  RH  059%=      5-min Rain = 0
KSE2 131606Z 13004KT 25/16 A3022 RMK A01 T02450156  RH  057%=      5-min Rain = 0
KSE2 131607Z 11006KT 25/16 A3022 RMK A01 T02460159  RH  059%=      5-min Rain = 0
KSE2 131608Z 11006KT 25/15 A3022 RMK A01 T02460153  RH  056%=      5-min Rain = 0
KSE2 131609Z 13006KT 25/16 A3022 RMK A01 T02450155  RH  057%=      5-min Rain = 0
KSE2 131610Z 12007KT 25/16 A3022 RMK A01 T02450157  RH  058%=      5-min Rain = 0
KSE2 131611Z 11004KT 25/15 A3022 RMK A01 T02450151  RH  056%=      5-min Rain = 0
KSE2 131612Z 11005KT 25/16 A3022 RMK A01 T02450156  RH  058%=      5-min Rain = 0
KSE2 131613Z 09006KT 25/15 A3022 RMK A01 T02450152  RH  056%=      5-min Rain = 0
KSE2 131614Z 06004KT 25/16 A3022 RMK A01 T02460155  RH  057%=      5-min Rain = 0
KSE2 131615Z 07006KT 25/15 A3022 RMK A01 T02450151  RH  056%=      5-min Rain = 0
KSE2 131616Z 08006KT 25/16 A3022 RMK A01 T02450156  RH  057%=      5-min Rain = 0
KSE2 131617Z 08005KT 25/16 A3022 RMK A01 T02460159  RH  058%=      5-min Rain = 0
KSE2 131618Z 09006KT 25/16 A3022 RMK A01 T02470156  RH  057%=      5-min Rain = 0
KSE2 131619Z 12006KT 25/16 A3022 RMK A01 T02460155  RH  057%=      5-min Rain = 0
KSE2 131620Z 13004KT 25/16 A3021 RMK A01 T02450157  RH  058%=      5-min Rain = 0
KSE2 131621Z 14005KT 25/16 A3021 RMK A01 T02460159  RH  058%=      5-min Rain = 0
KSE2 131622Z 10005KT 25/16 A3021 RMK A01 T02480163  RH  059%=      5-min Rain = 0
KSE2 131623Z 11005KT 25/16 A3021 RMK A01 T02490163  RH  059%=      5-min Rain = 0
KSE2 131624Z 11005KT 25/16 A3021 RMK A01 T02500163  RH  058%=      5-min Rain = 0
KSE2 131625Z 11007KT 25/16 A3021 RMK A01 T02510161  RH  057%=      5-min Rain = 0
KSE2 131626Z 12008KT 25/16 A3021 RMK A01 T02520161  RH  057%=      5-min Rain = 0
KSE2 131627Z 12008KT 25/16 A3021 RMK A01 T02520157  RH  056%=      5-min Rain = 0
KSE2 131628Z 13006KT 25/15 A3021 RMK A01 T02490153  RH  055%=      5-min Rain = 0
KSE2 131629Z 13003KT 25/16 A3021 RMK A01 T02470156  RH  057%=      5-min Rain = 0
KSE2 131630Z 11002KT 25/15 A3021 RMK A01 T02470153  RH  056%=      5-min Rain = 0
KSE2 131631Z 13002KT 25/15 A3021 RMK A01 T02460154  RH  056%=      5-min Rain = 0
KSE2 131632Z 15003KT 25/16 A3021 RMK A01 T02460155  RH  057%=      5-min Rain = 0
KSE2 131633Z 17004KT 25/16 A3021 RMK A01 T02470156  RH  057%=      5-min Rain = 0
KSE2 131634Z 15007KT 25/16 A3021 RMK A01 T02490157  RH  056%=      5-min Rain = 0
KSE2 131635Z 16007KT 25/16 A3021 RMK A01 T02510159  RH  057%=      5-min Rain = 0
KSE2 131636Z 14007KT 25/16 A3021 RMK A01 T02520157  RH  056%=      5-min Rain = 0
KSE2 131637Z 15007KT 25/16 A3021 RMK A01 T02510157  RH  056%=      5-min Rain = 0
KSE2 131638Z 15008KT 25/16 A3021 RMK A01 T02510157  RH  056%=      5-min Rain = 0
KSE2 131639Z 16005KT 25/16 A3021 RMK A01 T02510160  RH  057%=      5-min Rain = 0
KSE2 131640Z 16004KT 25/16 A3021 RMK A01 T02530161  RH  057%=      5-min Rain = 0
KSE2 131641Z 16002KT 25/16 A3021 RMK A01 T02540161  RH  057%=      5-min Rain = 0
KSE2 131642Z 19005KT 25/16 A3021 RMK A01 T02540161  RH  056%=      5-min Rain = 0
KSE2 131643Z 21003KT 26/16 A3021 RMK A01 T02560161  RH  056%=      5-min Rain = 0
KSE2 131644Z 14006KT 26/16 A3021 RMK A01 T02560164  RH  057%=      5-min Rain = 0
KSE2 131645Z 15008KT 26/16 A3021 RMK A01 T02560160  RH  055%=      5-min Rain = 0
KSE2 131646Z 14009KT 26/16 A3021 RMK A01 T02560161  RH  056%=      5-min Rain = 0
KSE2 131647Z 12008KT 26/16 A3021 RMK A01 T02560163  RH  056%=      5-min Rain = 0
KSE2 131648Z 12006KT 26/16 A3021 RMK A01 T02550158  RH  055%=      5-min Rain = 0
KSE2 131649Z 11005KT 25/16 A3021 RMK A01 T02540157  RH  055%=      5-min Rain = 0
KSE2 131650Z 14006KT 25/16 A3021 RMK A01 T02520157  RH  056%=      5-min Rain = 0
KSE2 131651Z 14006KT 25/16 A3021 RMK A01 T02510161  RH  058%=      5-min Rain = 0
KSE2 131652Z 15006KT 25/16 A3021 RMK A01 T02500159  RH  057%=      5-min Rain = 0
KSE2 131653Z 16004KT 25/16 A3021 RMK A01 T02520162  RH  058%=      5-min Rain = 0
KSE2 131654Z 17002KT 25/16 A3021 RMK A01 T02530161  RH  057%=      5-min Rain = 0
KSE2 131655Z 17002KT 26/17 A3021 RMK A01 T02550169  RH  059%=      5-min Rain = 0
KSE2 131656Z 12007KT 26/17 A3021 RMK A01 T02580166  RH  057%=      5-min Rain = 0
KSE2 131657Z 11006KT 26/17 A3021 RMK A01 T02570166  RH  057%=      5-min Rain = 0
KSE2 131658Z 12006KT 26/16 A3021 RMK A01 T02570163  RH  056%=      5-min Rain = 0
KSE2 131659Z 12007KT 26/16 A3021 RMK A01 T02570162  RH  056%=      5-min Rain = 0
KSE2 131700Z 12006KT 26/16 A3021 RMK A01 T02550161  RH  056%=      5-min Rain = 0
KSE2 131701Z 12006KT 26/16 A3021 RMK A01 T02550163  RH  057%=      5-min Rain = 0
KSE2 131702Z 12006KT 26/16 A3021 RMK A01 T02550164  RH  057%=      5-min Rain = 0
KSE2 131703Z 12005KT 26/16 A3021 RMK A01 T02550160  RH  056%=      5-min Rain = 0
KSE2 131704Z 09005KT 25/16 A3021 RMK A01 T02540160  RH  056%=      5-min Rain = 0
KSE2 131705Z 07003KT 25/16 A3021 RMK A01 T02540162  RH  056%=      5-min Rain = 0
KSE2 131706Z 10005KT 26/16 A3021 RMK A01 T02550162  RH  057%=      5-min Rain = 0
KSE2 131707Z 10005KT 26/16 A3021 RMK A01 T02550161  RH  056%=      5-min Rain = 0
KSE2 131708Z 13002KT 26/16 A3021 RMK A01 T02550162  RH  056%=      5-min Rain = 0
KSE2 131709Z 11003KT 26/17 A3021 RMK A01 T02560170  RH  059%=      5-min Rain = 0
KSE2 131710Z 12007KT 26/17 A3021 RMK A01 T02590172  RH  058%=      5-min Rain = 0
KSE2 131711Z 13007KT 26/17 A3021 RMK A01 T02610166  RH  056%=      5-min Rain = 0
KSE2 131712Z 13004KT 26/16 A3021 RMK A01 T02580160  RH  055%=      5-min Rain = 0
KSE2 131713Z 14006KT 26/17 A3021 RMK A01 T02560165  RH  057%=      5-min Rain = 0
KSE2 131714Z 14007KT 26/16 A3021 RMK A01 T02560163  RH  056%=      5-min Rain = 0
KSE2 131715Z 15004KT 26/16 A3021 RMK A01 T02560163  RH  056%=      5-min Rain = 0
KSE2 131716Z 14002KT 26/16 A3021 RMK A01 T02560163  RH  057%=      5-min Rain = 0
KSE2 131717Z 08002KT 26/17 A3021 RMK A01 T02560168  RH  058%=      5-min Rain = 0
KSE2 131718Z 09003KT 26/17 A3021 RMK A01 T02580168  RH  057%=      5-min Rain = 0
KSE2 131719Z 14005KT 26/17 A3021 RMK A01 T02590169  RH  057%=      5-min Rain = 0
KSE2 131720Z 14006KT 26/17 A3021 RMK A01 T02610167  RH  056%=      5-min Rain = 0
KSE2 131721Z 15005KT 26/16 A3021 RMK A01 T02590162  RH  055%=      5-min Rain = 0
KSE2 131722Z 16001KT 26/16 A3021 RMK A01 T02570163  RH  056%=      5-min Rain = 0
KSE2 131723Z 15002KT 26/17 A302 RMK A01 T02570170  RH  058%=      5-min Rain = 0
KSE2 131724Z 14001KT 26/16 A302 RMK A01 T02590163  RH  055%=      5-min Rain = 0
KSE2 131725Z 14003KT 26/17 A302 RMK A01 T02600166  RH  056%=      5-min Rain = 0
KSE2 131726Z 13006KT 26/17 A302 RMK A01 T02610168  RH  056%=      5-min Rain = 0
KSE2 131727Z 13003KT 26/17 A3021 RMK A01 T02610165  RH  056%=      5-min Rain = 0
KSE2 131728Z 17001KT 26/16 A3021 RMK A01 T02580162  RH  055%=      5-min Rain = 0
KSE2 131729Z 09001KT 26/16 A3021 RMK A01 T02580162  RH  055%=      5-min Rain = 0
KSE2 131730Z 09003KT 26/16 A3021 RMK A01 T02580164  RH  056%=      5-min Rain = 0
KSE2 131731Z 11004KT 26/17 A302 RMK A01 T02580168  RH  057%=      5-min Rain = 0
KSE2 131732Z 09004KT 26/18 A302 RMK A01 T02610177  RH  060%=      5-min Rain = 0
KSE2 131733Z 08004KT 26/17 A302 RMK A01 T02640171  RH  057%=      5-min Rain = 0
KSE2 131734Z 07005KT 26/17 A302 RMK A01 T02630166  RH  055%=      5-min Rain = 0
KSE2 131735Z 07004KT 26/16 A302 RMK A01 T02610163  RH  055%=      5-min Rain = 0
KSE2 131736Z 07006KT 26/16 A302 RMK A01 T02590163  RH  056%=      5-min Rain = 0
KSE2 131737Z 08006KT 26/17 A302 RMK A01 T02590168  RH  057%=      5-min Rain = 0
KSE2 131738Z 07005KT 26/18 A302 RMK A01 T02620175  RH  059%=      5-min Rain = 0
KSE2 131739Z 06006KT 27/17 A302 RMK A01 T02650170  RH  056%=      5-min Rain = 0
KSE2 131740Z 10005KT 27/18 A302 RMK A01 T02650177  RH  058%=      5-min Rain = 0
KSE2 131741Z 14004KT 27/17 A302 RMK A01 T02690172  RH  056%=      5-min Rain = 0
KSE2 131742Z 14002KT 27/17 A302 RMK A01 T02670168  RH  055%=      5-min Rain = 0
KSE2 131743Z 13002KT 27/17 A302 RMK A01 T02660169  RH  055%=      5-min Rain = 0
KSE2 131744Z 14001KT 26/17 A302 RMK A01 T02640169  RH  056%=      5-min Rain = 0
KSE2 131745Z 10000KT 26/17 A302 RMK A01 T02640165  RH  054%=      5-min Rain = 0
KSE2 131746Z 05002KT 27/17 A302 RMK A01 T02650169  RH  056%=      5-min Rain = 0
KSE2 131747Z 05004KT 27/17 A302 RMK A01 T02650167  RH  055%=      5-min Rain = 0
KSE2 131748Z 12004KT 26/17 A302 RMK A01 T02640171  RH  057%=      5-min Rain = 0
KSE2 131749Z 11005KT 27/17 A302 RMK A01 T02660174  RH  057%=      5-min Rain = 0
KSE2 131750Z 09004KT 27/17 A302 RMK A01 T02670167  RH  054%=      5-min Rain = 0
KSE2 131751Z 09007KT 27/17 A302 RMK A01 T02660170  RH  055%=      5-min Rain = 0
KSE2 131752Z 09006KT 27/17 A302 RMK A01 T02660165  RH  054%=      5-min Rain = 0
KSE2 131753Z 07002KT 26/17 A302 RMK A01 T02630165  RH  055%=      5-min Rain = 0
KSE2 131754Z 04001KT 26/16 A302 RMK A01 T02620164  RH  055%=      5-min Rain = 0
KSE2 131755Z 06001KT 26/17 A302 RMK A01 T02610169  RH  057%=      5-min Rain = 0
KSE2 131756Z 07003KT 26/17 A302 RMK A01 T02600166  RH  056%=      5-min Rain = 0
KSE2 131757Z 21006KT 26/17 A302 RMK A01 T02600169  RH  057%=      5-min Rain = 0
KSE2 131758Z 16003KT 26/17 A302 RMK A01 T02600173  RH  059%=      5-min Rain = 0
KSE2 131759Z 16007KT 26/17 A302 RMK A01 T02630173  RH  058%=      5-min Rain = 0
KSE2 131800Z 14006KT 27/17 A302 RMK A01 T02660174  RH  057%=      5-min Rain = 0
KSE2 131801Z 12005KT 27/17 A302 RMK A01 T02690171  RH  055%=      5-min Rain = 0
KSE2 131802Z 12006KT 27/17 A302 RMK A01 T02680173  RH  056%=      5-min Rain = 0
KSE2 131803Z 14007KT 27/17 A302 RMK A01 T02700174  RH  056%=      5-min Rain = 0
KSE2 131804Z 15006KT 27/17 A302 RMK A01 T02700171  RH  055%=      5-min Rain = 0
KSE2 131805Z 14005KT 27/17 A302 RMK A01 T02680167  RH  054%=      5-min Rain = 0
KSE2 131806Z 16005KT 27/17 A302 RMK A01 T02670167  RH  054%=      5-min Rain = 0
KSE2 131807Z 14005KT 27/17 A302 RMK A01 T02660167  RH  055%=      5-min Rain = 0
KSE2 131808Z 17004KT 27/17 A302 RMK A01 T02660167  RH  055%=      5-min Rain = 0
KSE2 131809Z 16003KT 27/17 A302 RMK A01 T02660167  RH  055%=      5-min Rain = 0
KSE2 131810Z 19001KT 27/16 A302 RMK A01 T02660163  RH  053%=      5-min Rain = 0
KSE2 131811Z 16002KT 27/17 A302 RMK A01 T02650169  RH  056%=      5-min Rain = 0
KSE2 131812Z 17004KT 27/17 A302 RMK A01 T02650170  RH  056%=      5-min Rain = 0
KSE2 131813Z 19003KT 27/17 A302 RMK A01 T02650168  RH  055%=      5-min Rain = 0
KSE2 131814Z 17003KT 27/17 A302 RMK A01 T02680173  RH  056%=      5-min Rain = 0
KSE2 131815Z 15004KT 27/17 A302 RMK A01 T02680170  RH  055%=      5-min Rain = 0
KSE2 131816Z 11002KT 27/18 A302 RMK A01 T02690176  RH  057%=      5-min Rain = 0
KSE2 131817Z 11003KT 27/17 A302 RMK A01 T02720173  RH  055%=      5-min Rain = 0
KSE2 131818Z 11001KT 27/17 A302 RMK A01 T02700171  RH  055%=      5-min Rain = 0
KSE2 131819Z 09002KT 27/17 A3019 RMK A01 T02700170  RH  054%=      5-min Rain = 0
KSE2 131820Z 10004KT 27/17 A3019 RMK A01 T02700174  RH  056%=      5-min Rain = 0
KSE2 131821Z 20003KT 27/17 A302 RMK A01 T02700171  RH  055%=      5-min Rain = 0
KSE2 131822Z 21003G9KT 27/17 A3019 RMK A01 T02690168  RH  054%=      5-min Rain = 0
KSE2 131823Z 19007KT 27/18 A3019 RMK A01 T02680175  RH  057%=      5-min Rain = 0
KSE2 131824Z 18005KT 27/17 A3019 RMK A01 T02670170  RH  055%=      5-min Rain = 0
KSE2 131825Z 15008KT 27/17 A3019 RMK A01 T02650173  RH  057%=      5-min Rain = 0
KSE2 131826Z 14005KT 26/17 A3019 RMK A01 T02640165  RH  055%=      5-min Rain = 0
KSE2 131827Z 15005KT 26/17 A3019 RMK A01 T02620168  RH  056%=      5-min Rain = 0
KSE2 131828Z 18003KT 26/17 A3019 RMK A01 T02620171  RH  058%=      5-min Rain = 0
KSE2 131829Z 17005KT 26/17 A3019 RMK A01 T02620170  RH  057%=      5-min Rain = 0
KSE2 131830Z 17005KT 26/17 A3019 RMK A01 T02620174  RH  058%=      5-min Rain = 0
KSE2 131831Z 18006KT 26/17 A3019 RMK A01 T02630172  RH  057%=      5-min Rain = 0
KSE2 131832Z 19006KT 26/17 A3019 RMK A01 T02630170  RH  056%=      5-min Rain = 0
KSE2 131833Z 18005KT 26/17 A3019 RMK A01 T02630170  RH  057%=      5-min Rain = 0
KSE2 131834Z 18004KT 26/17 A3019 RMK A01 T02630172  RH  057%=      5-min Rain = 0
KSE2 131835Z 23004KT 26/17 A3019 RMK A01 T02630169  RH  056%=      5-min Rain = 0
KSE2 131836Z 25003KT 26/17 A3019 RMK A01 T02630169  RH  056%=      5-min Rain = 0
KSE2 131837Z 22002KT 26/17 A3019 RMK A01 T02630170  RH  057%=      5-min Rain = 0
KSE2 131838Z 19001KT 26/17 A3019 RMK A01 T02630165  RH  055%=      5-min Rain = 0
KSE2 131839Z 16004KT 26/17 A3019 RMK A01 T02620167  RH  056%=      5-min Rain = 0
KSE2 131840Z 13003KT 26/17 A3019 RMK A01 T02640171  RH  057%=      5-min Rain = 0
KSE2 131841Z 15004KT 27/18 A3018 RMK A01 T02680177  RH  057%=      5-min Rain = 0
KSE2 131842Z 19005KT 27/18 A3018 RMK A01 T02720176  RH  056%=      5-min Rain = 0
KSE2 131843Z 22005KT 27/17 A3018 RMK A01 T02730173  RH  054%=      5-min Rain = 0
KSE2 131844Z 22006KT 27/17 A3018 RMK A01 T02730172  RH  054%=      5-min Rain = 0
KSE2 131845Z 20006KT 27/17 A3018 RMK A01 T02720169  RH  053%=      5-min Rain = 0
KSE2 131846Z 16006KT 27/17 A3018 RMK A01 T02700171  RH  055%=      5-min Rain = 0
KSE2 131847Z 17004KT 27/17 A3018 RMK A01 T02690173  RH  056%=      5-min Rain = 0
KSE2 131848Z 22004KT 27/17 A3018 RMK A01 T02680171  RH  055%=      5-min Rain = 0
KSE2 131849Z 20003KT 27/17 A3018 RMK A01 T02680170  RH  055%=      5-min Rain = 0
KSE2 131850Z 13004KT 27/18 A3018 RMK A01 T02670175  RH  057%=      5-min Rain = 0
KSE2 131851Z 15003KT 27/17 A3018 RMK A01 T02680173  RH  056%=      5-min Rain = 0
KSE2 131852Z 21002KT 27/17 A3018 RMK A01 T02680166  RH  054%=      5-min Rain = 0
KSE2 131853Z 23003KT 27/17 A3018 RMK A01 T02680169  RH  055%=      5-min Rain = 0
KSE2 131854Z 22002KT 27/16 A3018 RMK A01 T02670162  RH  053%=      5-min Rain = 0
KSE2 131855Z 19002KT 27/17 A3018 RMK A01 T02680173  RH  056%=      5-min Rain = 0
KSE2 131856Z 15002KT 27/17 A3018 RMK A01 T02710171  RH  055%=      5-min Rain = 0
KSE2 131857Z 11005KT 27/17 A3018 RMK A01 T02720170  RH  054%=      5-min Rain = 0
KSE2 131858Z 12002KT 27/17 A3018 RMK A01 T02710165  RH  053%=      5-min Rain = 0
KSE2 131859Z 13003KT 27/17 A3018 RMK A01 T02690169  RH  054%=      5-min Rain = 0
KSE2 131900Z 13005KT 27/17 A3018 RMK A01 T02690173  RH  056%=      5-min Rain = 0
KSE2 131901Z 13005KT 27/17 A3018 RMK A01 T02680174  RH  056%=      5-min Rain = 0
KSE2 131902Z 15005KT 27/17 A3018 RMK A01 T02670172  RH  056%=      5-min Rain = 0
KSE2 131903Z 15005KT 27/17 A3017 RMK A01 T02670170  RH  055%=      5-min Rain = 0
KSE2 131904Z 13005KT 27/17 A3017 RMK A01 T02660169  RH  055%=      5-min Rain = 0
KSE2 131905Z 15004KT 27/17 A3017 RMK A01 T02660170  RH  056%=      5-min Rain = 0
KSE2 131906Z 19002KT 27/17 A3017 RMK A01 T02660172  RH  057%=      5-min Rain = 0
KSE2 131907Z 19001KT 27/17 A3017 RMK A01 T02660169  RH  055%=      5-min Rain = 0
KSE2 131908Z 22001KT 27/17 A3017 RMK A01 T02670168  RH  055%=      5-min Rain = 0
KSE2 131909Z 21000KT 27/17 A3017 RMK A01 T02680170  RH  055%=      5-min Rain = 0
KSE2 131910Z 14003KT 27/17 A3017 RMK A01 T02690171  RH  055%=      5-min Rain = 0
KSE2 131911Z 15005KT 27/17 A3017 RMK A01 T02690172  RH  055%=      5-min Rain = 0
KSE2 131912Z 15003KT 27/17 A3017 RMK A01 T02700174  RH  056%=      5-min Rain = 0
KSE2 131913Z 15003KT 27/18 A3017 RMK A01 T02690175  RH  056%=      5-min Rain = 0
KSE2 131914Z 15003KT 27/18 A3017 RMK A01 T02690177  RH  057%=      5-min Rain = 0
KSE2 131915Z 14004KT 27/17 A3017 RMK A01 T02690170  RH  055%=      5-min Rain = 0
KSE2 131916Z 13003KT 27/18 A3017 RMK A01 T02680175  RH  057%=      5-min Rain = 0
KSE2 131917Z 11004KT 27/17 A3017 RMK A01 T02680173  RH  056%=      5-min Rain = 0
KSE2 131918Z 10002KT 27/17 A3017 RMK A01 T02670172  RH  056%=      5-min Rain = 0
KSE2 131919Z 09001KT 27/17 A3017 RMK A01 T02670173  RH  057%=      5-min Rain = 0
KSE2 131920Z 13002KT 27/17 A3017 RMK A01 T02670171  RH  055%=      5-min Rain = 0
KSE2 131921Z 15001KT 27/17 A3017 RMK A01 T02680171  RH  055%=      5-min Rain = 0
KSE2 131922Z 21001KT 27/17 A3017 RMK A01 T02700169  RH  054%=      5-min Rain = 0
KSE2 131923Z 11003KT 27/18 A3016 RMK A01 T02720175  RH  055%=      5-min Rain = 0
KSE2 131924Z 14007KT 27/18 A3016 RMK A01 T02740177  RH  055%=      5-min Rain = 0
KSE2 131925Z 14006KT 28/18 A3016 RMK A01 T02760175  RH  054%=      5-min Rain = 0
KSE2 131926Z 15006KT 28/17 A3017 RMK A01 T02780171  RH  052%=      5-min Rain = 0
KSE2 131927Z 15004KT 28/17 A3016 RMK A01 T02770169  RH  052%=      5-min Rain = 0
KSE2 131928Z 13006KT 28/17 A3016 RMK A01 T02760168  RH  052%=      5-min Rain = 0
KSE2 131929Z 13004KT 28/17 A3016 RMK A01 T02760167  RH  052%=      5-min Rain = 0
KSE2 131930Z 11004KT 28/17 A3016 RMK A01 T02750169  RH  052%=      5-min Rain = 0
KSE2 131931Z 12004KT 28/17 A3016 RMK A01 T02750173  RH  054%=      5-min Rain = 0
KSE2 131932Z 17003KT 28/18 A3016 RMK A01 T02770179  RH  055%=      5-min Rain = 0
KSE2 131933Z 18002KT 28/18 A3016 RMK A01 T02800175  RH  053%=      5-min Rain = 0
KSE2 131934Z 19003KT 28/17 A3016 RMK A01 T02810171  RH  051%=      5-min Rain = 0
KSE2 131935Z 21004KT 28/17 A3016 RMK A01 T02810168  RH  050%=      5-min Rain = 0
KSE2 131936Z 19002KT 28/17 A3016 RMK A01 T02790173  RH  053%=      5-min Rain = 0
KSE2 131937Z 18004KT 28/17 A3016 RMK A01 T02780168  RH  051%=      5-min Rain = 0
KSE2 131938Z 16003KT 28/17 A3016 RMK A01 T02750167  RH  052%=      5-min Rain = 0
KSE2 131939Z 18001KT 27/17 A3016 RMK A01 T02740174  RH  054%=      5-min Rain = 0
KSE2 131940Z 11001KT 28/18 A3016 RMK A01 T02770178  RH  055%=      5-min Rain = 0
KSE2 131941Z 10006KT 28/18 A3016 RMK A01 T02800178  RH  054%=      5-min Rain = 0
KSE2 131942Z 11006KT 28/17 A3016 RMK A01 T02800172  RH  052%=      5-min Rain = 0
KSE2 131943Z 11006KT 28/17 A3016 RMK A01 T02780173  RH  053%=      5-min Rain = 0
KSE2 131944Z 10005KT 28/17 A3016 RMK A01 T02760171  RH  053%=      5-min Rain = 0
KSE2 131945Z 14004KT 27/18 A3016 RMK A01 T02740176  RH  055%=      5-min Rain = 0
KSE2 131946Z 16002KT 27/17 A3016 RMK A01 T02730171  RH  054%=      5-min Rain = 0
KSE2 131947Z 18003KT 27/18 A3016 RMK A01 T02730175  RH  055%=      5-min Rain = 0
KSE2 131948Z 16003KT 27/18 A3016 RMK A01 T02730178  RH  056%=      5-min Rain = 0
KSE2 131949Z 10003KT 27/17 A3016 RMK A01 T02730173  RH  055%=      5-min Rain = 0
KSE2 131950Z 09006KT 27/17 A3016 RMK A01 T02730172  RH  054%=      5-min Rain = 0
KSE2 131951Z 08005KT 27/17 A3016 RMK A01 T02710165  RH  052%=      5-min Rain = 0
KSE2 131952Z 07005KT 27/17 A3016 RMK A01 T02700168  RH  054%=      5-min Rain = 0
KSE2 131953Z 09004KT 27/17 A3016 RMK A01 T02700167  RH  053%=      5-min Rain = 0
KSE2 131954Z 08004KT 27/17 A3016 RMK A01 T02700168  RH  054%=      5-min Rain = 0
KSE2 131955Z 07003KT 27/17 A3016 RMK A01 T02700172  RH  055%=      5-min Rain = 0
KSE2 131956Z 06002KT 27/16 A3016 RMK A01 T02710164  RH  052%=      5-min Rain = 0
KSE2 131957Z 05001KT 27/17 A3016 RMK A01 T02710171  RH  054%=      5-min Rain = 0
KSE2 131958Z 02002KT 27/17 A3015 RMK A01 T02720170  RH  054%=      5-min Rain = 0
KSE2 131959Z 22002KT 27/17 A3015 RMK A01 T02720173  RH  054%=      5-min Rain = 0
KSE2 132000Z 13004KT 27/17 A3015 RMK A01 T02720173  RH  055%=      5-min Rain = 0
KSE2 132001Z 14005KT 27/17 A3015 RMK A01 T02730173  RH  055%=      5-min Rain = 0
KSE2 132002Z 10005KT 27/17 A3015 RMK A01 T02720174  RH  055%=      5-min Rain = 0
KSE2 132003Z 11004KT 27/17 A3015 RMK A01 T02720174  RH  055%=      5-min Rain = 0
KSE2 132004Z 12002KT 27/17 A3015 RMK A01 T02720174  RH  055%=      5-min Rain = 0
KSE2 132005Z 13003KT 27/17 A3015 RMK A01 T02710171  RH  054%=      5-min Rain = 0
KSE2 132006Z 12005KT 27/17 A3015 RMK A01 T02710174  RH  056%=      5-min Rain = 0
KSE2 132007Z 13006KT 27/17 A3015 RMK A01 T02700174  RH  056%=      5-min Rain = 0
KSE2 132008Z 16005KT 27/17 A3015 RMK A01 T02690173  RH  055%=      5-min Rain = 0
KSE2 132009Z 18003KT 27/17 A3015 RMK A01 T02690170  RH  055%=      5-min Rain = 0
KSE2 132010Z 17003KT 27/17 A3015 RMK A01 T02680172  RH  056%=      5-min Rain = 0
KSE2 132011Z 20004KT 27/17 A3015 RMK A01 T02680174  RH  056%=      5-min Rain = 0
KSE2 132012Z 24001KT 27/17 A3015 RMK A01 T02680174  RH  056%=      5-min Rain = 0
KSE2 132013Z 28000KT 27/17 A3015 RMK A01 T02690169  RH  054%=      5-min Rain = 0
KSE2 132014Z 25002KT 27/17 A3015 RMK A01 T02710174  RH  055%=      5-min Rain = 0
KSE2 132015Z 25002KT 27/18 A3015 RMK A01 T02740179  RH  056%=      5-min Rain = 0
KSE2 132016Z 22003KT 28/17 A3015 RMK A01 T02770173  RH  053%=      5-min Rain = 0
KSE2 132017Z 23002KT 28/17 A3015 RMK A01 T02790170  RH  052%=      5-min Rain = 0
KSE2 132018Z 14002KT 28/17 A3015 RMK A01 T02790168  RH  051%=      5-min Rain = 0
KSE2 132019Z 14006KT 28/18 A3015 RMK A01 T02790177  RH  054%=      5-min Rain = 0
KSE2 132020Z 11007KT 28/18 A3015 RMK A01 T02810180  RH  054%=      5-min Rain = 0
KSE2 132021Z 10005KT 28/18 A3015 RMK A01 T02830178  RH  053%=      5-min Rain = 0
KSE2 132022Z 12005KT 28/18 A3014 RMK A01 T02830180  RH  054%=      5-min Rain = 0
KSE2 132023Z 18005KT 28/17 A3015 RMK A01 T02820173  RH  051%=      5-min Rain = 0
KSE2 132024Z 17003KT 28/17 A3015 RMK A01 T02810169  RH  051%=      5-min Rain = 0
KSE2 132025Z 16003KT 28/17 A3014 RMK A01 T02800174  RH  052%=      5-min Rain = 0
KSE2 132026Z 18004KT 28/18 A3014 RMK A01 T02810177  RH  053%=      5-min Rain = 0
KSE2 132027Z 18006KT 28/18 A3014 RMK A01 T02830180  RH  053%=      5-min Rain = 0
KSE2 132028Z 14006KT 29/18 A3015 RMK A01 T02850180  RH  053%=      5-min Rain = 0
KSE2 132029Z 10005KT 29/17 A3015 RMK A01 T02860172  RH  050%=      5-min Rain = 0
KSE2 132030Z 07004KT 29/17 A3014 RMK A01 T02850167  RH  049%=      5-min Rain = 0
KSE2 132031Z 06004KT 28/17 A3014 RMK A01 T02820170  RH  051%=      5-min Rain = 0
KSE2 132032Z 06002KT 28/18 A3014 RMK A01 T02840177  RH  052%=      5-min Rain = 0
KSE2 132033Z 06003KT 29/17 A3014 RMK A01 T02860169  RH  049%=      5-min Rain = 0
KSE2 132034Z 07002KT 29/18 A3014 RMK A01 T02870178  RH  052%=      5-min Rain = 0
KSE2 132035Z 08002KT 29/18 A3014 RMK A01 T02870175  RH  051%=      5-min Rain = 0
KSE2 132036Z 10002KT 29/17 A3014 RMK A01 T02860170  RH  049%=      5-min Rain = 0
KSE2 132037Z 19004KT 29/18 A3014 RMK A01 T02860182  RH  053%=      5-min Rain = 0
KSE2 132038Z 19005KT 29/18 A3014 RMK A01 T02880175  RH  051%=      5-min Rain = 0
KSE2 132039Z 18006KT 29/18 A3014 RMK A01 T02860178  RH  052%=      5-min Rain = 0
KSE2 132040Z 17005KT 28/18 A3014 RMK A01 T02840175  RH  052%=      5-min Rain = 0
KSE2 132041Z 16004KT 28/17 A3014 RMK A01 T02810173  RH  052%=      5-min Rain = 0
KSE2 132042Z 17006KT 28/17 A3014 RMK A01 T02810174  RH  052%=      5-min Rain = 0
KSE2 132043Z 17004KT 28/17 A3014 RMK A01 T02810170  RH  051%=      5-min Rain = 0
KSE2 132044Z 17003KT 28/17 A3014 RMK A01 T02810168  RH  050%=      5-min Rain = 0
KSE2 132045Z 18005KT 28/17 A3014 RMK A01 T02830174  RH  052%=      5-min Rain = 0
KSE2 132046Z 19005KT 28/17 A3014 RMK A01 T02840172  RH  051%=      5-min Rain = 0
KSE2 132047Z 19003KT 29/17 A3014 RMK A01 T02850170  RH  050%=      5-min Rain = 0
KSE2 132048Z 18002KT 29/17 A3014 RMK A01 T02860166  RH  048%=      5-min Rain = 0
KSE2 132049Z 24002KT 29/18 A3014 RMK A01 T02860177  RH  052%=      5-min Rain = 0
KSE2 132050Z 23002KT 29/17 A3014 RMK A01 T02870171  RH  049%=      5-min Rain = 0
KSE2 132051Z 14001KT 29/17 A3014 RMK A01 T02880170  RH  049%=      5-min Rain = 0
KSE2 132052Z 14002KT 29/18 A3014 RMK A01 T02900176  RH  050%=      5-min Rain = 0
KSE2 132053Z 13003KT 29/17 A3014 RMK A01 T02910173  RH  049%=      5-min Rain = 0
KSE2 132054Z 13004KT 29/17 A3014 RMK A01 T02910173  RH  049%=      5-min Rain = 0
KSE2 132055Z 10004KT 29/18 A3014 RMK A01 T02910175  RH  050%=      5-min Rain = 0
KSE2 132056Z 09004KT 29/17 A3014 RMK A01 T02910174  RH  049%=      5-min Rain = 0
KSE2 132057Z 08002KT 29/18 A3014 RMK A01 T02910175  RH  050%=      5-min Rain = 0
KSE2 132058Z 06003KT 29/18 A3014 RMK A01 T02910176  RH  050%=      5-min Rain = 0
KSE2 132059Z 06004KT 29/18 A3014 RMK A01 T02920177  RH  050%=      5-min Rain = 0
KSE2 132100Z 13004KT 29/18 A3014 RMK A01 T02930180  RH  051%=      5-min Rain = 0
KSE2 132101Z 17005KT 29/18 A3013 RMK A01 T02920179  RH  050%=      5-min Rain = 0
KSE2 132102Z 16004KT 29/18 A3013 RMK A01 T02920181  RH  051%=      5-min Rain = 0
KSE2 132103Z 15008KT 29/18 A3013 RMK A01 T02920176  RH  049%=      5-min Rain = 0
KSE2 132104Z 16007KT 29/18 A3013 RMK A01 T02890176  RH  050%=      5-min Rain = 0
KSE2 132105Z 16007KT 29/17 A3013 RMK A01 T02860173  RH  050%=      5-min Rain = 0
KSE2 132106Z 15008KT 28/17 A3013 RMK A01 T02830169  RH  050%=      5-min Rain = 0
KSE2 132107Z 15005KT 28/16 A3013 RMK A01 T02810164  RH  049%=      5-min Rain = 0
KSE2 132108Z 13006KT 28/17 A3013 RMK A01 T02790168  RH  051%=      5-min Rain = 0
KSE2 132109Z 14006KT 28/17 A3013 RMK A01 T02780169  RH  051%=      5-min Rain = 0
KSE2 132110Z 15004KT 28/17 A3013 RMK A01 T02780170  RH  052%=      5-min Rain = 0
KSE2 132111Z 16004KT 28/17 A3013 RMK A01 T02780171  RH  052%=      5-min Rain = 0
KSE2 132112Z 15003KT 28/17 A3013 RMK A01 T02780166  RH  050%=      5-min Rain = 0
KSE2 132113Z 16003KT 28/17 A3013 RMK A01 T02780167  RH  051%=      5-min Rain = 0
KSE2 132114Z 14004KT 28/17 A3013 RMK A01 T02790167  RH  051%=      5-min Rain = 0
KSE2 132115Z 15003KT 28/17 A3013 RMK A01 T02800169  RH  051%=      5-min Rain = 0
KSE2 132116Z 13002KT 28/17 A3013 RMK A01 T02820166  RH  049%=      5-min Rain = 0
KSE2 132117Z 14002KT 28/17 A3013 RMK A01 T02840169  RH  050%=      5-min Rain = 0
KSE2 132118Z 17003KT 29/17 A3013 RMK A01 T02850165  RH  048%=      5-min Rain = 0
KSE2 132119Z 18001KT 29/16 A3013 RMK A01 T02850162  RH  047%=      5-min Rain = 0
KSE2 132120Z 19002KT 29/17 A3013 RMK A01 T02850167  RH  049%=      5-min Rain = 0
KSE2 132121Z 19002KT 29/17 A3013 RMK A01 T02860166  RH  048%=      5-min Rain = 0
KSE2 132122Z 16000KT 29/17 A3013 RMK A01 T02870172  RH  050%=      5-min Rain = 0
KSE2 132123Z 17002KT 29/17 A3013 RMK A01 T02890172  RH  049%=      5-min Rain = 0
KSE2 132124Z 17005KT 29/17 A3013 RMK A01 T02910169  RH  048%=      5-min Rain = 0
KSE2 132125Z 17005KT 29/17 A3013 RMK A01 T02920165  RH  046%=      5-min Rain = 0
KSE2 132126Z 18004KT 29/17 A3013 RMK A01 T02920171  RH  048%=      5-min Rain = 0
KSE2 132127Z 17004KT 29/17 A3013 RMK A01 T02930166  RH  046%=      5-min Rain = 0
KSE2 132128Z 17005KT 29/17 A3013 RMK A01 T02940170  RH  047%=      5-min Rain = 0
KSE2 132129Z 15003KT 29/17 A3013 RMK A01 T02940167  RH  046%=      5-min Rain = 0
KSE2 132130Z 14004KT 29/17 A3013 RMK A01 T02920168  RH  047%=      5-min Rain = 0
KSE2 132131Z 14008KT 29/18 A3012 RMK A01 T02920176  RH  050%=      5-min Rain = 0
KSE2 132132Z 14008KT 29/18 A3012 RMK A01 T02900180  RH  051%=      5-min Rain = 0
KSE2 132133Z 13008KT 29/17 A3012 RMK A01 T02890173  RH  049%=      5-min Rain = 0
KSE2 132134Z 14007KT 29/18 A3012 RMK A01 T02880176  RH  051%=      5-min Rain = 0
KSE2 132135Z 15006KT 29/17 A3012 RMK A01 T02860171  RH  050%=      5-min Rain = 0
KSE2 132136Z 14007KT 28/17 A3012 RMK A01 T02840171  RH  051%=      5-min Rain = 0
KSE2 132137Z 13007KT 28/17 A3012 RMK A01 T02820174  RH  052%=      5-min Rain = 0
KSE2 132138Z 12008KT 28/18 A3012 RMK A01 T02820175  RH  052%=      5-min Rain = 0
KSE2 132139Z 14007KT 29/17 A3012 RMK A01 T02850174  RH  051%=      5-min Rain = 0
KSE2 132140Z 17004KT 29/18 A3012 RMK A01 T02860182  RH  053%=      5-min Rain = 0
KSE2 132141Z 18004KT 29/19 A3012 RMK A01 T02890185  RH  054%=      5-min Rain = 0
KSE2 132142Z 18003KT 29/19 A3012 RMK A01 T02920188  RH  054%=      5-min Rain = 0
KSE2 132143Z 16006KT 29/18 A3012 RMK A01 T02940178  RH  050%=      5-min Rain = 0
KSE2 132144Z 16007KT 29/17 A3012 RMK A01 T02920173  RH  049%=      5-min Rain = 0
KSE2 132145Z 17005KT 29/18 A3012 RMK A01 T02900176  RH  050%=      5-min Rain = 0
KSE2 132146Z 19002KT 29/18 A3012 RMK A01 T02900175  RH  050%=      5-min Rain = 0
KSE2 132147Z 17003KT 29/18 A3012 RMK A01 T02900177  RH  051%=      5-min Rain = 0
KSE2 132148Z 18005KT 29/18 A3012 RMK A01 T02900180  RH  051%=      5-min Rain = 0
KSE2 132149Z 18005KT 29/18 A3012 RMK A01 T02890178  RH  051%=      5-min Rain = 0
KSE2 132150Z 19004KT 29/17 A3012 RMK A01 T02860172  RH  050%=      5-min Rain = 0
KSE2 132151Z 20005KT 29/17 A3012 RMK A01 T02850174  RH  051%=      5-min Rain = 0
KSE2 132152Z 15005KT 29/17 A3012 RMK A01 T02860174  RH  051%=      5-min Rain = 0
KSE2 132153Z 13005KT 29/17 A3012 RMK A01 T02890174  RH  050%=      5-min Rain = 0
KSE2 132154Z 16005KT 29/18 A3011 RMK A01 T02900176  RH  050%=      5-min Rain = 0
KSE2 132155Z 19007KT 29/17 A3011 RMK A01 T02900172  RH  049%=      5-min Rain = 0
KSE2 132156Z 18007KT 29/18 A3011 RMK A01 T02900175  RH  050%=      5-min Rain = 0
KSE2 132157Z 18008KT 29/18 A3011 RMK A01 T02900175  RH  050%=      5-min Rain = 0
KSE2 132158Z 18007KT 29/17 A3011 RMK A01 T02890172  RH  049%=      5-min Rain = 0
KSE2 132159Z 18007KT 29/17 A3011 RMK A01 T02880173  RH  050%=      5-min Rain = 0
KSE2 132200Z 18007KT 29/17 A3011 RMK A01 T02870171  RH  049%=      5-min Rain = 0
KSE2 132201Z 17006KT 29/18 A3011 RMK A01 T02860175  RH  051%=      5-min Rain = 0
KSE2 132202Z 17006KT 29/18 A3011 RMK A01 T02860176  RH  051%=      5-min Rain = 0
KSE2 132203Z 17006KT 29/18 A3011 RMK A01 T02860180  RH  053%=      5-min Rain = 0
KSE2 132204Z 17007KT 29/17 A3011 RMK A01 T02860173  RH  050%=      5-min Rain = 0
KSE2 132205Z 18005KT 28/17 A3011 RMK A01 T02840170  RH  050%=      5-min Rain = 0
KSE2 132206Z 18006KT 28/17 A3011 RMK A01 T02820171  RH  051%=      5-min Rain = 0
KSE2 132207Z 19004KT 28/17 A3011 RMK A01 T02820173  RH  052%=      5-min Rain = 0
KSE2 132208Z 18004KT 28/18 A3011 RMK A01 T02830175  RH  052%=      5-min Rain = 0
KSE2 132209Z 16004KT 28/17 A3011 RMK A01 T02820168  RH  050%=      5-min Rain = 0
KSE2 132210Z 16005KT 28/17 A3011 RMK A01 T02830171  RH  051%=      5-min Rain = 0
KSE2 132211Z 18004KT 28/17 A3011 RMK A01 T02840173  RH  051%=      5-min Rain = 0
KSE2 132212Z 18005KT 29/17 A3011 RMK A01 T02870171  RH  050%=      5-min Rain = 0
KSE2 132213Z 17006KT 29/17 A3011 RMK A01 T02880171  RH  049%=      5-min Rain = 0
KSE2 132214Z 19005KT 29/17 A3011 RMK A01 T02890170  RH  049%=      5-min Rain = 0
KSE2 132215Z 20005KT 29/17 A3011 RMK A01 T02890167  RH  048%=      5-min Rain = 0
KSE2 132216Z 19004KT 29/17 A3011 RMK A01 T02890170  RH  049%=      5-min Rain = 0
KSE2 132217Z 19004KT 29/17 A3011 RMK A01 T02900169  RH  048%=      5-min Rain = 0
KSE2 132218Z 20004KT 29/17 A301 RMK A01 T02910169  RH  048%=      5-min Rain = 0
KSE2 132219Z 17003KT 29/16 A301 RMK A01 T02920164  RH  046%=      5-min Rain = 0
KSE2 132220Z 16003KT 29/17 A301 RMK A01 T02910165  RH  047%=      5-min Rain = 0
KSE2 132221Z 16006KT 29/17 A301 RMK A01 T02900169  RH  048%=      5-min Rain = 0
KSE2 132222Z 15008KT 29/17 A301 RMK A01 T02900166  RH  047%=      5-min Rain = 0
KSE2 132223Z 15007KT 29/17 A301 RMK A01 T02890167  RH  048%=      5-min Rain = 0
KSE2 132224Z 14008KT 29/17 A301 RMK A01 T02890168  RH  048%=      5-min Rain = 0
KSE2 132225Z 16008KT 29/17 A301 RMK A01 T02890170  RH  049%=      5-min Rain = 0
KSE2 132226Z 17007KT 29/17 A301 RMK A01 T02890167  RH  048%=      5-min Rain = 0
KSE2 132227Z 16005KT 29/17 A301 RMK A01 T02890167  RH  048%=      5-min Rain = 0
KSE2 132228Z 15008KT 29/17 A301 RMK A01 T02890170  RH  049%=      5-min Rain = 0
KSE2 132229Z 16009KT 29/16 A301 RMK A01 T02890164  RH  047%=      5-min Rain = 0
KSE2 132230Z 16005KT 29/17 A301 RMK A01 T02880166  RH  048%=      5-min Rain = 0
KSE2 132231Z 16005KT 29/17 A301 RMK A01 T02880166  RH  047%=      5-min Rain = 0
KSE2 132232Z 17006KT 29/17 A301 RMK A01 T02880170  RH  049%=      5-min Rain = 0
KSE2 132233Z 19007KT 29/17 A301 RMK A01 T02880167  RH  048%=      5-min Rain = 0
KSE2 132234Z 17005KT 29/17 A301 RMK A01 T02890171  RH  049%=      5-min Rain = 0
KSE2 132235Z 18005KT 29/17 A301 RMK A01 T02910174  RH  049%=      5-min Rain = 0
KSE2 132236Z 15005KT 29/17 A301 RMK A01 T02930167  RH  047%=      5-min Rain = 0
KSE2 132237Z 14006KT 29/17 A301 RMK A01 T02920166  RH  047%=      5-min Rain = 0
KSE2 132238Z 15005KT 29/17 A301 RMK A01 T02910170  RH  048%=      5-min Rain = 0
KSE2 132239Z 14005KT 29/17 A301 RMK A01 T02910170  RH  048%=      5-min Rain = 0
KSE2 132240Z 16007KT 29/16 A301 RMK A01 T02920164  RH  046%=      5-min Rain = 0
KSE2 132241Z 15006KT 29/16 A301 RMK A01 T02900162  RH  046%=      5-min Rain = 0
KSE2 132242Z 17003KT 29/16 A301 RMK A01 T02890160  RH  046%=      5-min Rain = 0
KSE2 132243Z 18004KT 29/17 A301 RMK A01 T02890167  RH  048%=      5-min Rain = 0
KSE2 132244Z 18006KT 29/17 A301 RMK A01 T02910165  RH  047%=      5-min Rain = 0
KSE2 132245Z 18004KT 29/17 A301 RMK A01 T02910165  RH  047%=      5-min Rain = 0
KSE2 132246Z 17003KT 29/17 A301 RMK A01 T02920170  RH  048%=      5-min Rain = 0
KSE2 132247Z 14009KT 29/17 A301 RMK A01 T02920168  RH  047%=      5-min Rain = 0
KSE2 132248Z 15008KT 29/17 A301 RMK A01 T02910170  RH  048%=      5-min Rain = 0
KSE2 132249Z 14007KT 29/17 A301 RMK A01 T02900166  RH  047%=      5-min Rain = 0
KSE2 132250Z 14007KT 29/17 A301 RMK A01 T02890170  RH  048%=      5-min Rain = 0
KSE2 132251Z 13006KT 29/17 A301 RMK A01 T02890169  RH  048%=      5-min Rain = 0
KSE2 132252Z 16006KT 29/18 A301 RMK A01 T02890175  RH  050%=      5-min Rain = 0
KSE2 132253Z 17007KT 29/17 A301 RMK A01 T02910174  RH  049%=      5-min Rain = 0
KSE2 132254Z 17006KT 29/17 A301 RMK A01 T02920171  RH  048%=      5-min Rain = 0
KSE2 132255Z 18004KT 29/18 A301 RMK A01 T02920176  RH  050%=      5-min Rain = 0
KSE2 132256Z 17008KT 29/17 A301 RMK A01 T02920172  RH  048%=      5-min Rain = 0
KSE2 132257Z 16007KT 29/17 A301 RMK A01 T02910169  RH  048%=      5-min Rain = 0
KSE2 132258Z 16006KT 29/17 A301 RMK A01 T02890170  RH  048%=      5-min Rain = 0
KSE2 132259Z 15007KT 29/17 A301 RMK A01 T02890169  RH  048%=      5-min Rain = 0
KSE2 132300Z 15007KT 29/17 A301 RMK A01 T02880169  RH  049%=      5-min Rain = 0
KSE2 132301Z 15006KT 29/16 A301 RMK A01 T02870163  RH  047%=      5-min Rain = 0
KSE2 132302Z 15007KT 29/17 A301 RMK A01 T02870167  RH  048%=      5-min Rain = 0
KSE2 132303Z 15006KT 29/17 A301 RMK A01 T02870165  RH  048%=      5-min Rain = 0
KSE2 132304Z 13005KT 29/17 A3009 RMK A01 T02870170  RH  049%=      5-min Rain = 0
KSE2 132305Z 15005KT 29/17 A3009 RMK A01 T02890173  RH  050%=      5-min Rain = 0
KSE2 132306Z 13005KT 29/18 A3009 RMK A01 T02900175  RH  050%=      5-min Rain = 0
KSE2 132307Z 15005KT 29/18 A3009 RMK A01 T02910175  RH  050%=      5-min Rain = 0
KSE2 132308Z 16006KT 29/18 A3009 RMK A01 T02910176  RH  050%=      5-min Rain = 0
KSE2 132309Z 16007KT 29/17 A3009 RMK A01 T02920171  RH  048%=      5-min Rain = 0
KSE2 132310Z 17008KT 29/17 A3009 RMK A01 T02910165  RH  047%=      5-min Rain = 0
KSE2 132311Z 16007KT 29/17 A3009 RMK A01 T02890166  RH  048%=      5-min Rain = 0
KSE2 132312Z 18006KT 29/17 A3009 RMK A01 T02890170  RH  049%=      5-min Rain = 0
KSE2 132313Z 18007KT 29/17 A3009 RMK A01 T02890172  RH  049%=      5-min Rain = 0
KSE2 132314Z 18004KT 29/17 A3009 RMK A01 T02900172  RH  049%=      5-min Rain = 0
KSE2 132315Z 18006KT 29/17 A3009 RMK A01 T02910173  RH  049%=      5-min Rain = 0
KSE2 132316Z 18006KT 29/17 A3009 RMK A01 T02920166  RH  047%=      5-min Rain = 0
KSE2 132317Z 19006KT 29/17 A3009 RMK A01 T02920167  RH  047%=      5-min Rain = 0
KSE2 132318Z 17006KT 29/17 A3009 RMK A01 T02910168  RH  047%=      5-min Rain = 0
KSE2 132319Z 15005KT 29/17 A3009 RMK A01 T02910171  RH  048%=      5-min Rain = 0
KSE2 132320Z 15008KT 29/17 A3009 RMK A01 T02910172  RH  049%=      5-min Rain = 0
KSE2 132321Z 15006KT 29/17 A3009 RMK A01 T02900168  RH  048%=      5-min Rain = 0
KSE2 132322Z 17005KT 29/17 A3009 RMK A01 T02890166  RH  047%=      5-min Rain = 0
KSE2 132323Z 15006KT 29/17 A3009 RMK A01 T02890166  RH  047%=      5-min Rain = 0
KSE2 132324Z 15006KT 29/16 A3009 RMK A01 T02880164  RH  047%=      5-min Rain = 0
KSE2 132325Z 15007KT 29/17 A3009 RMK A01 T02880168  RH  048%=      5-min Rain = 0
KSE2 132326Z 14005KT 29/17 A3009 RMK A01 T02880170  RH  049%=      5-min Rain = 0
KSE2 132327Z 16006KT 29/17 A3009 RMK A01 T02870172  RH  050%=      5-min Rain = 0
KSE2 132328Z 16007KT 29/17 A3009 RMK A01 T02880173  RH  050%=      5-min Rain = 0
KSE2 132329Z 15007KT 29/17 A3009 RMK A01 T02880172  RH  049%=      5-min Rain = 0
KSE2 132330Z 15007KT 29/17 A3009 RMK A01 T02890174  RH  050%=      5-min Rain = 0
KSE2 132331Z 16009KT 29/17 A3009 RMK A01 T02880168  RH  048%=      5-min Rain = 0
KSE2 132332Z 17006KT 29/17 A3009 RMK A01 T02870167  RH  048%=      5-min Rain = 0
KSE2 132333Z 16005KT 29/17 A3009 RMK A01 T02870170  RH  049%=      5-min Rain = 0
KSE2 132334Z 15006KT 29/17 A3009 RMK A01 T02860173  RH  050%=      5-min Rain = 0
KSE2 132335Z 15004KT 29/17 A3009 RMK A01 T02870173  RH  050%=      5-min Rain = 0
KSE2 132336Z 15007KT 29/17 A3008 RMK A01 T02870171  RH  049%=      5-min Rain = 0
KSE2 132337Z 17008KT 29/17 A3008 RMK A01 T02870168  RH  049%=      5-min Rain = 0
KSE2 132338Z 15006KT 29/17 A3008 RMK A01 T02860170  RH  049%=      5-min Rain = 0
KSE2 132339Z 15005KT 29/17 A3008 RMK A01 T02860169  RH  049%=      5-min Rain = 0
KSE2 132340Z 16004KT 29/17 A3008 RMK A01 T02860171  RH  050%=      5-min Rain = 0
KSE2 132341Z 17003KT 29/17 A3008 RMK A01 T02860174  RH  051%=      5-min Rain = 0
KSE2 132342Z 17004KT 29/18 A3008 RMK A01 T02880177  RH  051%=      5-min Rain = 0
KSE2 132343Z 17004KT 29/17 A3008 RMK A01 T02890173  RH  050%=      5-min Rain = 0
KSE2 132344Z 17005KT 29/17 A3008 RMK A01 T02890172  RH  049%=      5-min Rain = 0
KSE2 132345Z 16005KT 29/17 A3008 RMK A01 T02890171  RH  049%=      5-min Rain = 0
KSE2 132346Z 16004KT 29/17 A3008 RMK A01 T02890172  RH  049%=      5-min Rain = 0
KSE2 132347Z 16007KT 29/17 A3008 RMK A01 T02890169  RH  048%=      5-min Rain = 0
KSE2 132348Z 14006KT 29/17 A3008 RMK A01 T02880167  RH  048%=      5-min Rain = 0
KSE2 132349Z 14007KT 29/17 A3008 RMK A01 T02870165  RH  047%=      5-min Rain = 0
KSE2 132350Z 14007KT 29/17 A3008 RMK A01 T02860168  RH  049%=      5-min Rain = 0
KSE2 132351Z 15008KT 29/17 A3008 RMK A01 T02860165  RH  048%=      5-min Rain = 0
KSE2 132352Z 14006KT 29/17 A3008 RMK A01 T02850165  RH  048%=      5-min Rain = 0
KSE2 132353Z 13007KT 29/17 A3008 RMK A01 T02850168  RH  049%=      5-min Rain = 0
KSE2 132354Z 14006KT 29/17 A3008 RMK A01 T02850169  RH  049%=      5-min Rain = 0
KSE2 132355Z 15006KT 29/17 A3008 RMK A01 T02860168  RH  049%=      5-min Rain = 0
KSE2 132356Z 14006KT 29/17 A3008 RMK A01 T02860169  RH  049%=      5-min Rain = 0
KSE2 132357Z 14006KT 29/17 A3008 RMK A01 T02860170  RH  050%=      5-min Rain = 0
KSE2 132358Z 15007KT 29/17 A3008 RMK A01 T02860168  RH  049%=      5-min Rain = 0
KSE2 132359Z 14009KT 29/17 A3008 RMK A01 T02860167  RH  049%=      5-min Rain = 0
KSE2 140000Z 14007KT 29/17 A3008 RMK A01 T02850171  RH  050%=      5-min Rain = 0
KSE2 140001Z 15008KT 29/17 A3008 RMK A01 T02850167  RH  049%=      5-min Rain = 0
KSE2 140002Z 13006KT 29/17 A3008 RMK A01 T02850169  RH  049%=      5-min Rain = 0
KSE2 140003Z 14006KT 28/17 A3008 RMK A01 T02840168  RH  049%=      5-min Rain = 0
KSE2 140004Z 15009KT 28/17 A3008 RMK A01 T02840170  RH  050%=      5-min Rain = 0
KSE2 140005Z 14008KT 28/17 A3008 RMK A01 T02840170  RH  050%=      5-min Rain = 0
KSE2 140006Z 14009KT 28/17 A3008 RMK A01 T02840169  RH  050%=      5-min Rain = 0
KSE2 140007Z 14007KT 28/17 A3007 RMK A01 T02830171  RH  051%=      5-min Rain = 0
KSE2 140008Z 15009KT 28/17 A3007 RMK A01 T02820169  RH  050%=      5-min Rain = 0
KSE2 140009Z 14009KT 28/17 A3007 RMK A01 T02800168  RH  051%=      5-min Rain = 0
KSE2 140010Z 14007KT 28/17 A3007 RMK A01 T02800169  RH  051%=      5-min Rain = 0
KSE2 140011Z 14008KT 28/17 A3007 RMK A01 T02800170  RH  051%=      5-min Rain = 0
KSE2 140012Z 12006KT 28/17 A3007 RMK A01 T02800170  RH  051%=      5-min Rain = 0
KSE2 140013Z 12006KT 28/17 A3007 RMK A01 T02810171  RH  051%=      5-min Rain = 0
KSE2 140014Z 13005KT 28/17 A3007 RMK A01 T02810169  RH  051%=      5-min Rain = 0
KSE2 140015Z 14004KT 28/17 A3007 RMK A01 T02810171  RH  051%=      5-min Rain = 0
KSE2 140016Z 15007KT 28/17 A3007 RMK A01 T02810170  RH  051%=      5-min Rain = 0
KSE2 140017Z 15008KT 28/17 A3007 RMK A01 T02810170  RH  051%=      5-min Rain = 0
KSE2 140018Z 14006KT 28/17 A3007 RMK A01 T02820173  RH  052%=      5-min Rain = 0
KSE2 140019Z 13009KT 28/17 A3007 RMK A01 T02820174  RH  052%=      5-min Rain = 0
KSE2 140020Z 13009KT 28/17 A3007 RMK A01 T02820171  RH  051%=      5-min Rain = 0
KSE2 140021Z 13010KT 28/17 A3007 RMK A01 T02820171  RH  051%=      5-min Rain = 0
KSE2 140022Z 14008KT 28/17 A3007 RMK A01 T02810167  RH  050%=      5-min Rain = 0
KSE2 140023Z 14008KT 28/17 A3007 RMK A01 T02810168  RH  050%=      5-min Rain = 0
KSE2 140024Z 13007KT 28/17 A3007 RMK A01 T02810171  RH  051%=      5-min Rain = 0
KSE2 140025Z 13008KT 28/17 A3007 RMK A01 T02810174  RH  052%=      5-min Rain = 0
KSE2 140026Z 13008KT 28/17 A3007 RMK A01 T02810170  RH  051%=      5-min Rain = 0
KSE2 140027Z 13008KT 28/17 A3007 RMK A01 T02810171  RH  051%=      5-min Rain = 0
KSE2 140028Z 13008KT 28/17 A3007 RMK A01 T02800170  RH  051%=      5-min Rain = 0
KSE2 140029Z 13007KT 28/17 A3007 RMK A01 T02800170  RH  051%=      5-min Rain = 0
KSE2 140030Z 14006KT 28/17 A3007 RMK A01 T02800172  RH  052%=      5-min Rain = 0
KSE2 140031Z 14008KT 28/17 A3007 RMK A01 T02800171  RH  052%=      5-min Rain = 0
KSE2 140032Z 15005KT 28/17 A3007 RMK A01 T02800170  RH  051%=      5-min Rain = 0
KSE2 140033Z 15005KT 28/17 A3007 RMK A01 T02800174  RH  053%=      5-min Rain = 0
KSE2 140034Z 14007KT 28/17 A3007 RMK A01 T02800172  RH  052%=      5-min Rain = 0
KSE2 140035Z 14007KT 28/17 A3007 RMK A01 T02800171  RH  052%=      5-min Rain = 0
KSE2 140036Z 14006KT 28/17 A3007 RMK A01 T02790171  RH  052%=      5-min Rain = 0
KSE2 140037Z 14006KT 28/17 A3007 RMK A01 T02790174  RH  053%=      5-min Rain = 0
KSE2 140038Z 13006KT 28/17 A3007 RMK A01 T02790172  RH  052%=      5-min Rain = 0
KSE2 140039Z 14007KT 28/17 A3007 RMK A01 T02790173  RH  053%=      5-min Rain = 0
KSE2 140040Z 14008KT 28/17 A3007 RMK A01 T02780168  RH  051%=      5-min Rain = 0
KSE2 140041Z 14008KT 28/17 A3007 RMK A01 T02780167  RH  051%=      5-min Rain = 0
KSE2 140042Z 14007KT 28/17 A3007 RMK A01 T02780168  RH  051%=      5-min Rain = 0
KSE2 140043Z 14009KT 28/17 A3007 RMK A01 T02780165  RH  050%=      5-min Rain = 0
KSE2 140044Z 14006KT 28/17 A3007 RMK A01 T02780167  RH  051%=      5-min Rain = 0
KSE2 140045Z 13005KT 28/17 A3007 RMK A01 T02780168  RH  051%=      5-min Rain = 0
KSE2 140046Z 13007KT 28/17 A3007 RMK A01 T02770170  RH  052%=      5-min Rain = 0
KSE2 140047Z 13007KT 28/17 A3007 RMK A01 T02770169  RH  052%=      5-min Rain = 0
KSE2 140048Z 13007KT 28/17 A3007 RMK A01 T02760170  RH  052%=      5-min Rain = 0
KSE2 140049Z 13007KT 28/17 A3007 RMK A01 T02760170  RH  052%=      5-min Rain = 0
KSE2 140050Z 14009KT 28/17 A3007 RMK A01 T02760169  RH  052%=      5-min Rain = 0
KSE2 140051Z 13009KT 28/17 A3007 RMK A01 T02750169  RH  052%=      5-min Rain = 0
KSE2 140052Z 13008KT 28/17 A3007 RMK A01 T02750171  RH  053%=      5-min Rain = 0
KSE2 140053Z 13007KT 27/17 A3007 RMK A01 T02740170  RH  053%=      5-min Rain = 0
KSE2 140054Z 13007KT 27/17 A3007 RMK A01 T02740170  RH  053%=      5-min Rain = 0
KSE2 140055Z 14008KT 27/17 A3007 RMK A01 T02740170  RH  053%=      5-min Rain = 0
KSE2 140056Z 13007KT 27/17 A3007 RMK A01 T02740172  RH  054%=      5-min Rain = 0
KSE2 140057Z 14006KT 27/17 A3007 RMK A01 T02730173  RH  054%=      5-min Rain = 0
KSE2 140058Z 14007KT 27/17 A3006 RMK A01 T02720173  RH  055%=      5-min Rain = 0
KSE2 140059Z 14007KT 27/17 A3006 RMK A01 T02710173  RH  055%=      5-min Rain = 0
KSE2 140100Z 14006KT 27/17 A3006 RMK A01 T02710172  RH  055%=      5-min Rain = 0
KSE2 140101Z 14007KT 27/17 A3006 RMK A01 T02710172  RH  055%=      5-min Rain = 0
KSE2 140102Z 14007KT 27/17 A3006 RMK A01 T02710172  RH  054%=      5-min Rain = 0
KSE2 140103Z 14008KT 27/17 A3006 RMK A01 T02710172  RH  055%=      5-min Rain = 0
KSE2 140104Z 13007KT 27/17 A3006 RMK A01 T02710171  RH  055%=      5-min Rain = 0
KSE2 140105Z 14006KT 27/17 A3006 RMK A01 T02700173  RH  055%=      5-min Rain = 0
KSE2 140106Z 14006KT 27/17 A3006 RMK A01 T02690173  RH  056%=      5-min Rain = 0
KSE2 140107Z 14005KT 27/17 A3006 RMK A01 T02690174  RH  056%=      5-min Rain = 0
KSE2 140108Z 14006KT 27/17 A3006 RMK A01 T02680174  RH  056%=      5-min Rain = 0
KSE2 140109Z 14005KT 27/17 A3006 RMK A01 T02680174  RH  056%=      5-min Rain = 0
KSE2 140110Z 14006KT 27/18 A3006 RMK A01 T02670175  RH  057%=      5-min Rain = 0
KSE2 140111Z 14006KT 27/18 A3006 RMK A01 T02660176  RH  058%=      5-min Rain = 0
KSE2 140112Z 14005KT 27/18 A3006 RMK A01 T02650175  RH  058%=      5-min Rain = 0
KSE2 140113Z 14006KT 26/17 A3006 RMK A01 T02640174  RH  058%=      5-min Rain = 0
KSE2 140114Z 14005KT 26/18 A3006 RMK A01 T02640176  RH  058%=      5-min Rain = 0
KSE2 140115Z 14006KT 26/18 A3006 RMK A01 T02640176  RH  058%=      5-min Rain = 0
KSE2 140116Z 14005KT 26/18 A3006 RMK A01 T02630176  RH  059%=      5-min Rain = 0
KSE2 140117Z 14007KT 26/18 A3006 RMK A01 T02620175  RH  059%=      5-min Rain = 0
KSE2 140118Z 15005KT 26/18 A3006 RMK A01 T02620175  RH  059%=      5-min Rain = 0
KSE2 140119Z 14006KT 26/18 A3006 RMK A01 T02610175  RH  059%=      5-min Rain = 0
KSE2 140120Z 14006KT 26/17 A3006 RMK A01 T02610174  RH  059%=      5-min Rain = 0
KSE2 140121Z 14005KT 26/18 A3006 RMK A01 T02600176  RH  059%=      5-min Rain = 0
KSE2 140122Z 14005KT 26/18 A3006 RMK A01 T02600176  RH  060%=      5-min Rain = 0
KSE2 140123Z 14006KT 26/18 A3006 RMK A01 T02590175  RH  060%=      5-min Rain = 0
KSE2 140124Z 14006KT 26/18 A3006 RMK A01 T02580175  RH  060%=      5-min Rain = 0
KSE2 140125Z 14006KT 26/18 A3006 RMK A01 T02580175  RH  060%=      5-min Rain = 0
KSE2 140126Z 14006KT 26/17 A3006 RMK A01 T02580174  RH  060%=      5-min Rain = 0
KSE2 140127Z 14006KT 26/18 A3006 RMK A01 T02580175  RH  060%=      5-min Rain = 0
KSE2 140128Z 14006KT 26/18 A3006 RMK A01 T02580175  RH  060%=      5-min Rain = 0
KSE2 140129Z 14005KT 26/18 A3006 RMK A01 T02570175  RH  060%=      5-min Rain = 0
KSE2 140130Z 14005KT 26/18 A3006 RMK A01 T02570175  RH  060%=      5-min Rain = 0
KSE2 140131Z 14005KT 26/18 A3006 RMK A01 T02570176  RH  061%=      5-min Rain = 0
KSE2 140132Z 14006KT 26/18 A3006 RMK A01 T02550175  RH  061%=      5-min Rain = 0
KSE2 140133Z 14005KT 26/18 A3006 RMK A01 T02550176  RH  062%=      5-min Rain = 0
KSE2 140134Z 14006KT 25/18 A3006 RMK A01 T02540176  RH  062%=      5-min Rain = 0
KSE2 140135Z 14006KT 25/18 A3006 RMK A01 T02540175  RH  061%=      5-min Rain = 0
KSE2 140136Z 14005KT 25/18 A3006 RMK A01 T02540175  RH  061%=      5-min Rain = 0
KSE2 140137Z 14005KT 25/17 A3006 RMK A01 T02540174  RH  061%=      5-min Rain = 0
KSE2 140138Z 14005KT 25/18 A3006 RMK A01 T02540175  RH  061%=      5-min Rain = 0
KSE2 140139Z 14006KT 25/18 A3006 RMK A01 T02540175  RH  061%=      5-min Rain = 0
KSE2 140140Z 14005KT 25/18 A3006 RMK A01 T02540176  RH  062%=      5-min Rain = 0
KSE2 140141Z 14006KT 25/18 A3006 RMK A01 T02540175  RH  062%=      5-min Rain = 0
KSE2 140142Z 14005KT 25/18 A3006 RMK A01 T02530175  RH  062%=      5-min Rain = 0
KSE2 140143Z 14005KT 25/18 A3006 RMK A01 T02530175  RH  062%=      5-min Rain = 0
KSE2 140144Z 14005KT 25/18 A3006 RMK A01 T02520176  RH  063%=      5-min Rain = 0
KSE2 140145Z 14005KT 25/18 A3006 RMK A01 T02520175  RH  063%=      5-min Rain = 0
KSE2 140146Z 14006KT 25/18 A3006 RMK A01 T02510176  RH  063%=      5-min Rain = 0
KSE2 140147Z 15005KT 25/18 A3006 RMK A01 T02510176  RH  063%=      5-min Rain = 0
KSE2 140148Z 15005KT 25/18 A3006 RMK A01 T02500175  RH  063%=      5-min Rain = 0
KSE2 140149Z 15005KT 25/18 A3006 RMK A01 T02500176  RH  063%=      5-min Rain = 0
KSE2 140150Z 15005KT 25/18 A3006 RMK A01 T02490176  RH  064%=      5-min Rain = 0
KSE2 140151Z 15005KT 25/18 A3006 RMK A01 T02490175  RH  064%=      5-min Rain = 0
KSE2 140152Z 14006KT 25/18 A3006 RMK A01 T02490176  RH  064%=      5-min Rain = 0
KSE2 140153Z 15006KT 25/18 A3006 RMK A01 T02490177  RH  064%=      5-min Rain = 0
KSE2 140154Z 15005KT 25/18 A3006 RMK A01 T02490176  RH  064%=      5-min Rain = 0
KSE2 140155Z 14005KT 25/18 A3006 RMK A01 T02480176  RH  064%=      5-min Rain = 0
KSE2 140156Z 15005KT 25/18 A3006 RMK A01 T02480176  RH  064%=      5-min Rain = 0
KSE2 140157Z 15005KT 25/18 A3006 RMK A01 T02480176  RH  064%=      5-min Rain = 0
KSE2 140158Z 15005KT 25/18 A3006 RMK A01 T02480177  RH  065%=      5-min Rain = 0
KSE2 140159Z 15005KT 25/18 A3006 RMK A01 T02470177  RH  065%=      5-min Rain = 0
KSE2 140200Z 14005KT 25/18 A3006 RMK A01 T02460177  RH  065%=      5-min Rain = 0
KSE2 140201Z 15005KT 25/18 A3006 RMK A01 T02460177  RH  065%=      5-min Rain = 0
KSE2 140202Z 15005KT 25/18 A3006 RMK A01 T02460177  RH  066%=      5-min Rain = 0
KSE2 140203Z 15005KT 25/18 A3006 RMK A01 T02450177  RH  066%=      5-min Rain = 0
KSE2 140204Z 14005KT 25/18 A3006 RMK A01 T02450177  RH  066%=      5-min Rain = 0
KSE2 140205Z 14005KT 25/18 A3006 RMK A01 T02450178  RH  066%=      5-min Rain = 0
KSE2 140206Z 14005KT 24/18 A3006 RMK A01 T02440177  RH  066%=      5-min Rain = 0
KSE2 140207Z 14005KT 24/18 A3006 RMK A01 T02440178  RH  067%=      5-min Rain = 0
KSE2 140208Z 14005KT 24/18 A3006 RMK A01 T02430178  RH  067%=      5-min Rain = 0
KSE2 140209Z 15005KT 24/18 A3006 RMK A01 T02430177  RH  067%=      5-min Rain = 0
KSE2 140210Z 15005KT 24/18 A3006 RMK A01 T02430177  RH  067%=      5-min Rain = 0
KSE2 140211Z 15005KT 24/18 A3006 RMK A01 T02430178  RH  067%=      5-min Rain = 0
KSE2 140212Z 15005KT 24/18 A3006 RMK A01 T02430179  RH  068%=      5-min Rain = 0
KSE2 140213Z 16005KT 24/18 A3006 RMK A01 T02420178  RH  068%=      5-min Rain = 0
KSE2 140214Z 16005KT 24/18 A3006 RMK A01 T02410179  RH  068%=      5-min Rain = 0
KSE2 140215Z 16005KT 24/18 A3006 RMK A01 T02410178  RH  068%=      5-min Rain = 0
KSE2 140216Z 15005KT 24/18 A3006 RMK A01 T02400179  RH  068%=      5-min Rain = 0
KSE2 140217Z 15005KT 24/18 A3006 RMK A01 T02400178  RH  068%=      5-min Rain = 0
KSE2 140218Z 15005KT 24/18 A3006 RMK A01 T02400178  RH  068%=      5-min Rain = 0
KSE2 140219Z 16005KT 24/18 A3006 RMK A01 T02400178  RH  068%=      5-min Rain = 0
KSE2 140220Z 15005KT 24/18 A3006 RMK A01 T02400179  RH  068%=      5-min Rain = 0
KSE2 140221Z 15005KT 24/18 A3006 RMK A01 T02400178  RH  068%=      5-min Rain = 0
KSE2 140222Z 15006KT 24/18 A3006 RMK A01 T02400177  RH  068%=      5-min Rain = 0
KSE2 140223Z 16005KT 24/18 A3006 RMK A01 T02410177  RH  067%=      5-min Rain = 0
KSE2 140224Z 15006KT 24/18 A3006 RMK A01 T02410177  RH  068%=      5-min Rain = 0
KSE2 140225Z 15007KT 24/18 A3006 RMK A01 T02410178  RH  068%=      5-min Rain = 0
KSE2 140226Z 15007KT 24/18 A3006 RMK A01 T02410178  RH  068%=      5-min Rain = 0
KSE2 140227Z 15007KT 24/18 A3006 RMK A01 T02410177  RH  068%=      5-min Rain = 0
KSE2 140228Z 15006KT 24/18 A3006 RMK A01 T02410178  RH  068%=      5-min Rain = 0
KSE2 140229Z 15006KT 24/18 A3006 RMK A01 T02410178  RH  068%=      5-min Rain = 0
KSE2 140230Z 15007KT 24/18 A3006 RMK A01 T02410178  RH  068%=      5-min Rain = 0
KSE2 140231Z 14006KT 24/18 A3006 RMK A01 T02410178  RH  068%=      5-min Rain = 0
KSE2 140232Z 15007KT 24/18 A3006 RMK A01 T02400178  RH  068%=      5-min Rain = 0
KSE2 140233Z 15006KT 24/18 A3006 RMK A01 T02400178  RH  068%=      5-min Rain = 0
KSE2 140234Z 15006KT 24/18 A3006 RMK A01 T02400178  RH  068%=      5-min Rain = 0
KSE2 140235Z 14006KT 24/18 A3006 RMK A01 T02400179  RH  069%=      5-min Rain = 0
KSE2 140236Z 14006KT 24/18 A3006 RMK A01 T02390178  RH  069%=      5-min Rain = 0
KSE2 140237Z 14007KT 24/18 A3006 RMK A01 T02390178  RH  069%=      5-min Rain = 0
KSE2 140238Z 15006KT 24/18 A3006 RMK A01 T02390178  RH  069%=      5-min Rain = 0
KSE2 140239Z 15006KT 24/18 A3006 RMK A01 T02380179  RH  069%=      5-min Rain = 0
KSE2 140240Z 16006KT 24/18 A3006 RMK A01 T02380179  RH  069%=      5-min Rain = 0
KSE2 140241Z 15006KT 24/18 A3006 RMK A01 T02370178  RH  069%=      5-min Rain = 0
KSE2 140242Z 15005KT 24/18 A3006 RMK A01 T02380178  RH  069%=      5-min Rain = 0
KSE2 140243Z 15006KT 24/18 A3006 RMK A01 T02370178  RH  069%=      5-min Rain = 0
KSE2 140244Z 15006KT 24/18 A3006 RMK A01 T02370178  RH  069%=      5-min Rain = 0
KSE2 140245Z 15004KT 24/18 A3007 RMK A01 T02370178  RH  069%=      5-min Rain = 0
KSE2 140246Z 15005KT 24/18 A3007 RMK A01 T02370179  RH  070%=      5-min Rain = 0
KSE2 140247Z 15005KT 24/18 A3007 RMK A01 T02370178  RH  070%=      5-min Rain = 0
KSE2 140248Z 16006KT 24/18 A3007 RMK A01 T02370179  RH  070%=      5-min Rain = 0
KSE2 140249Z 16005KT 24/18 A3007 RMK A01 T02360178  RH  070%=      5-min Rain = 0
KSE2 140250Z 16005KT 24/18 A3007 RMK A01 T02360178  RH  070%=      5-min Rain = 0
KSE2 140251Z 16005KT 24/18 A3007 RMK A01 T02360178  RH  070%=      5-min Rain = 0
KSE2 140252Z 16005KT 24/18 A3007 RMK A01 T02360178  RH  070%=      5-min Rain = 0
KSE2 140253Z 16006KT 24/18 A3007 RMK A01 T02360178  RH  070%=      5-min Rain = 0
KSE2 140254Z 16006KT 24/18 A3007 RMK A01 T02360178  RH  070%=      5-min Rain = 0
KSE2 140255Z 16006KT 24/18 A3007 RMK A01 T02360178  RH  070%=      5-min Rain = 0
KSE2 140256Z 16006KT 24/18 A3007 RMK A01 T02350178  RH  070%=      5-min Rain = 0
KSE2 140257Z 16006KT 24/18 A3007 RMK A01 T02350179  RH  070%=      5-min Rain = 0
KSE2 140258Z 16006KT 24/18 A3007 RMK A01 T02350178  RH  070%=      5-min Rain = 0
KSE2 140259Z 16007KT 24/18 A3007 RMK A01 T02350178  RH  070%=      5-min Rain = 0
KSE2 140300Z 16006KT 24/18 A3007 RMK A01 T02350178  RH  070%=      5-min Rain = 0
KSE2 140301Z 16006KT 24/18 A3007 RMK A01 T02350179  RH  070%=      5-min Rain = 0
KSE2 140302Z 16006KT 24/18 A3007 RMK A01 T02350178  RH  071%=      5-min Rain = 0
KSE2 140303Z 16006KT 24/18 A3007 RMK A01 T02350179  RH  071%=      5-min Rain = 0
KSE2 140304Z 16006KT 24/18 A3007 RMK A01 T02350178  RH  070%=      5-min Rain = 0
KSE2 140305Z 16006KT 24/18 A3007 RMK A01 T02350178  RH  071%=      5-min Rain = 0
KSE2 140306Z 16006KT 23/18 A3007 RMK A01 T02340179  RH  071%=      5-min Rain = 0
KSE2 140307Z 16006KT 23/18 A3007 RMK A01 T02340178  RH  071%=      5-min Rain = 0
KSE2 140308Z 16006KT 23/18 A3007 RMK A01 T02340178  RH  071%=      5-min Rain = 0
KSE2 140309Z 17005KT 23/18 A3007 RMK A01 T02340178  RH  071%=      5-min Rain = 0
KSE2 140310Z 16006KT 23/18 A3007 RMK A01 T02340179  RH  071%=      5-min Rain = 0
KSE2 140311Z 16005KT 23/18 A3007 RMK A01 T02340178  RH  071%=      5-min Rain = 0
KSE2 140312Z 16005KT 23/18 A3007 RMK A01 T02330178  RH  071%=      5-min Rain = 0
KSE2 140313Z 15005KT 23/18 A3007 RMK A01 T02330179  RH  071%=      5-min Rain = 0
KSE2 140314Z 16005KT 23/18 A3007 RMK A01 T02330179  RH  072%=      5-min Rain = 0
KSE2 140315Z 16005KT 23/18 A3007 RMK A01 T02320179  RH  072%=      5-min Rain = 0
KSE2 140316Z 16007KT 23/18 A3007 RMK A01 T02320178  RH  072%=      5-min Rain = 0
KSE2 140317Z 16007KT 23/18 A3007 RMK A01 T02320178  RH  072%=      5-min Rain = 0
KSE2 140318Z 16007KT 23/18 A3007 RMK A01 T02320178  RH  072%=      5-min Rain = 0
KSE2 140319Z 16006KT 23/18 A3007 RMK A01 T02320178  RH  072%=      5-min Rain = 0
KSE2 140320Z 16006KT 23/18 A3007 RMK A01 T02320178  RH  072%=      5-min Rain = 0
KSE2 140321Z 16006KT 23/18 A3007 RMK A01 T02320179  RH  072%=      5-min Rain = 0
KSE2 140322Z 16006KT 23/18 A3007 RMK A01 T02320178  RH  072%=      5-min Rain = 0
KSE2 140323Z 16006KT 23/18 A3007 RMK A01 T02310179  RH  072%=      5-min Rain = 0
KSE2 140324Z 16007KT 23/18 A3007 RMK A01 T02310179  RH  072%=      5-min Rain = 0
KSE2 140325Z 16007KT 23/18 A3007 RMK A01 T02310179  RH  072%=      5-min Rain = 0
KSE2 140326Z 16007KT 23/18 A3007 RMK A01 T02310179  RH  072%=      5-min Rain = 0
KSE2 140327Z 16007KT 23/18 A3007 RMK A01 T02310178  RH  072%=      5-min Rain = 0
KSE2 140328Z 16007KT 23/18 A3007 RMK A01 T02310178  RH  072%=      5-min Rain = 0
KSE2 140329Z 17006KT 23/18 A3007 RMK A01 T02310179  RH  072%=      5-min Rain = 0
KSE2 140330Z 16007KT 23/18 A3007 RMK A01 T02310179  RH  072%=      5-min Rain = 0
KSE2 140331Z 16006KT 23/18 A3007 RMK A01 T02300178  RH  072%=      5-min Rain = 0
KSE2 140332Z 17007KT 23/18 A3007 RMK A01 T02300179  RH  073%=      5-min Rain = 0
KSE2 140333Z 16007KT 23/18 A3007 RMK A01 T02300178  RH  072%=      5-min Rain = 0
KSE2 140334Z 17007KT 23/18 A3007 RMK A01 T02300178  RH  073%=      5-min Rain = 0
KSE2 140335Z 16006KT 23/18 A3007 RMK A01 T02310179  RH  073%=      5-min Rain = 0
KSE2 140336Z 16006KT 23/18 A3008 RMK A01 T02300179  RH  073%=      5-min Rain = 0
KSE2 140337Z 16006KT 23/18 A3008 RMK A01 T02300179  RH  073%=      5-min Rain = 0
KSE2 140338Z 16006KT 23/18 A3008 RMK A01 T02290179  RH  073%=      5-min Rain = 0
KSE2 140339Z 16006KT 23/18 A3008 RMK A01 T02290179  RH  073%=      5-min Rain = 0
KSE2 140340Z 16005KT 23/18 A3008 RMK A01 T02290179  RH  073%=      5-min Rain = 0
KSE2 140341Z 16006KT 23/18 A3008 RMK A01 T02290179  RH  073%=      5-min Rain = 0
KSE2 140342Z 16006KT 23/18 A3008 RMK A01 T02280179  RH  074%=      5-min Rain = 0
KSE2 140343Z 16006KT 23/18 A3008 RMK A01 T02280178  RH  073%=      5-min Rain = 0
KSE2 140344Z 15007KT 23/18 A3008 RMK A01 T02280179  RH  074%=      5-min Rain = 0
KSE2 140345Z 16006KT 23/18 A3008 RMK A01 T02280178  RH  073%=      5-min Rain = 0
KSE2 140346Z 16007KT 23/18 A3008 RMK A01 T02280178  RH  073%=      5-min Rain = 0
KSE2 140347Z 16006KT 23/18 A3008 RMK A01 T02290178  RH  073%=      5-min Rain = 0
KSE2 140348Z 16006KT 23/18 A3008 RMK A01 T02290178  RH  073%=      5-min Rain = 0
KSE2 140349Z 15005KT 23/18 A3008 RMK A01 T02290178  RH  073%=      5-min Rain = 0
KSE2 140350Z 16006KT 23/18 A3008 RMK A01 T02290179  RH  073%=      5-min Rain = 0
KSE2 140351Z 16005KT 23/18 A3008 RMK A01 T02290178  RH  073%=      5-min Rain = 0
KSE2 140352Z 16006KT 23/18 A3008 RMK A01 T02290179  RH  073%=      5-min Rain = 0
KSE2 140353Z 16006KT 23/18 A3008 RMK A01 T02280178  RH  073%=      5-min Rain = 0
KSE2 140354Z 16005KT 23/18 A3008 RMK A01 T02280178  RH  074%=      5-min Rain = 0
KSE2 140355Z 16005KT 23/18 A3008 RMK A01 T02270178  RH  074%=      5-min Rain = 0
KSE2 140356Z 16006KT 23/18 A3008 RMK A01 T02270178  RH  074%=      5-min Rain = 0
KSE2 140357Z 16006KT 23/18 A3009 RMK A01 T02270178  RH  074%=      5-min Rain = 0
KSE2 140358Z 16005KT 23/18 A3009 RMK A01 T02270178  RH  074%=      5-min Rain = 0
KSE2 140359Z 16005KT 23/18 A3009 RMK A01 T02270178  RH  074%=      5-min Rain = 0
KSE2 140400Z 16005KT 23/18 A3009 RMK A01 T02270179  RH  074%=      5-min Rain = 0
KSE2 140401Z 16005KT 23/18 A3009 RMK A01 T02260179  RH  074%=      5-min Rain = 0
KSE2 140402Z 16005KT 23/18 A3009 RMK A01 T02260178  RH  075%=      5-min Rain = 0
KSE2 140403Z 16005KT 23/18 A3009 RMK A01 T02260178  RH  075%=      5-min Rain = 0
KSE2 140404Z 16004KT 23/18 A3009 RMK A01 T02250179  RH  075%=      5-min Rain = 0
KSE2 140405Z 16005KT 23/18 A3009 RMK A01 T02250178  RH  075%=      5-min Rain = 0
KSE2 140406Z 16004KT 23/18 A3009 RMK A01 T02250178  RH  075%=      5-min Rain = 0
KSE2 140407Z 17006KT 23/18 A3009 RMK A01 T02250178  RH  075%=      5-min Rain = 0
KSE2 140408Z 17004KT 23/18 A3009 RMK A01 T02250178  RH  075%=      5-min Rain = 0
KSE2 140409Z 17005KT 23/18 A3009 RMK A01 T02250178  RH  075%=      5-min Rain = 0
KSE2 140410Z 17004KT 22/18 A3009 RMK A01 T02240178  RH  075%=      5-min Rain = 0
KSE2 140411Z 17005KT 22/18 A3009 RMK A01 T02240178  RH  075%=      5-min Rain = 0
KSE2 140412Z 16005KT 22/18 A3009 RMK A01 T02230178  RH  076%=      5-min Rain = 0
KSE2 140413Z 16005KT 22/18 A3009 RMK A01 T02230178  RH  076%=      5-min Rain = 0
KSE2 140414Z 16004KT 22/18 A3009 RMK A01 T02230178  RH  076%=      5-min Rain = 0
KSE2 140415Z 15004KT 22/18 A3009 RMK A01 T02230179  RH  076%=      5-min Rain = 0
KSE2 140416Z 16005KT 22/18 A3009 RMK A01 T02230179  RH  076%=      5-min Rain = 0
KSE2 140417Z 15004KT 22/18 A3009 RMK A01 T02220179  RH  076%=      5-min Rain = 0
KSE2 140418Z 15004KT 22/18 A3009 RMK A01 T02220178  RH  076%=      5-min Rain = 0
KSE2 140419Z 15004KT 22/18 A3009 RMK A01 T02220179  RH  076%=      5-min Rain = 0
KSE2 140420Z 14004KT 22/18 A3009 RMK A01 T02210179  RH  077%=      5-min Rain = 0
KSE2 140421Z 15005KT 22/18 A3009 RMK A01 T02210178  RH  077%=      5-min Rain = 0
KSE2 140422Z 15005KT 22/18 A3009 RMK A01 T02200179  RH  077%=      5-min Rain = 0
KSE2 140423Z 14004KT 22/18 A3009 RMK A01 T02190178  RH  077%=      5-min Rain = 0
KSE2 140424Z 14005KT 22/18 A3009 RMK A01 T02190178  RH  078%=      5-min Rain = 0
KSE2 140425Z 15004KT 22/18 A3009 RMK A01 T02190179  RH  078%=      5-min Rain = 0
KSE2 140426Z 14004KT 22/18 A3009 RMK A01 T02190179  RH  078%=      5-min Rain = 0
KSE2 140427Z 15005KT 22/18 A3009 RMK A01 T02180179  RH  078%=      5-min Rain = 0
KSE2 140428Z 15004KT 22/18 A3009 RMK A01 T02180179  RH  078%=      5-min Rain = 0
KSE2 140429Z 15005KT 22/18 A3009 RMK A01 T02180178  RH  078%=      5-min Rain = 0
KSE2 140430Z 15005KT 22/18 A3009 RMK A01 T02180178  RH  078%=      5-min Rain = 0
KSE2 140431Z 15005KT 22/18 A3009 RMK A01 T02180179  RH  078%=      5-min Rain = 0
KSE2 140432Z 15005KT 22/18 A3009 RMK A01 T02180179  RH  078%=      5-min Rain = 0
KSE2 140433Z 15005KT 22/18 A3009 RMK A01 T02180178  RH  078%=      5-min Rain = 0
KSE2 140434Z 15004KT 22/18 A3009 RMK A01 T02180178  RH  078%=      5-min Rain = 0
KSE2 140435Z 16004KT 22/18 A3009 RMK A01 T02180179  RH  079%=      5-min Rain = 0
KSE2 140436Z 15004KT 22/18 A3009 RMK A01 T02170179  RH  079%=      5-min Rain = 0
KSE2 140437Z 15004KT 22/18 A3009 RMK A01 T02170178  RH  078%=      5-min Rain = 0
KSE2 140438Z 16005KT 22/18 A3009 RMK A01 T02170178  RH  078%=      5-min Rain = 0
KSE2 140439Z 15004KT 22/18 A3009 RMK A01 T02170178  RH  078%=      5-min Rain = 0
KSE2 140440Z 14005KT 22/18 A3009 RMK A01 T02170178  RH  078%=      5-min Rain = 0
KSE2 140441Z 15005KT 22/18 A3009 RMK A01 T02170177  RH  078%=      5-min Rain = 0
KSE2 140442Z 15004KT 22/18 A3009 RMK A01 T02180177  RH  078%=      5-min Rain = 0
KSE2 140443Z 15004KT 22/18 A3009 RMK A01 T02180177  RH  077%=      5-min Rain = 0
KSE2 140444Z 15004KT 22/18 A3009 RMK A01 T02180177  RH  078%=      5-min Rain = 0
KSE2 140445Z 15004KT 22/18 A3009 RMK A01 T02180178  RH  078%=      5-min Rain = 0
KSE2 140446Z 15004KT 22/18 A3009 RMK A01 T02180177  RH  078%=      5-min Rain = 0
KSE2 140447Z 15004KT 22/18 A3009 RMK A01 T02180177  RH  078%=      5-min Rain = 0
KSE2 140448Z 15005KT 22/18 A3009 RMK A01 T02180178  RH  078%=      5-min Rain = 0
KSE2 140449Z 15004KT 22/18 A3009 RMK A01 T02180178  RH  078%=      5-min Rain = 0
KSE2 140450Z 15004KT 22/18 A3009 RMK A01 T02180178  RH  078%=      5-min Rain = 0
KSE2 140451Z 15004KT 22/18 A3009 RMK A01 T02170177  RH  078%=      5-min Rain = 0
KSE2 140452Z 15004KT 22/18 A3009 RMK A01 T02170177  RH  078%=      5-min Rain = 0
KSE2 140453Z 15005KT 22/18 A3009 RMK A01 T02180176  RH  077%=      5-min Rain = 0
KSE2 140454Z 15005KT 22/18 A3009 RMK A01 T02180176  RH  077%=      5-min Rain = 0
KSE2 140455Z 16005KT 22/18 A3009 RMK A01 T02180176  RH  077%=      5-min Rain = 0
KSE2 140456Z 15004KT 22/18 A3009 RMK A01 T02180176  RH  077%=      5-min Rain = 0
KSE2 140457Z 15004KT 22/18 A3009 RMK A01 T02190177  RH  077%=      5-min Rain = 0
KSE2 140458Z 16005KT 22/18 A3009 RMK A01 T02180176  RH  077%=      5-min Rain = 0
KSE2 140459Z 15006KT 22/18 A3009 RMK A01 T02180176  RH  077%=      5-min Rain = 0

Page generated in 0.1313 seconds.